GFSMA_500_spd_033.txt.gz
Wind_Speed
28 28 28 28 28 28 27 27 27 25 24 24 25 25 24 24 25 24 25 27 28 29 30 30 30 30 28 27 26 27 27 27 27 27 25 25 26 27 28 28 29 31 31
30 30 30 30 30 30 29 28 29 27 26 26 25 25 24 24 27 28 30 30 31 31 30 30 30 29 28 27 27 28 28 27 27 27 25 27 27 28 28 29 29 31 29
30 31 30 31 31 31 30 28 28 28 27 27 27 27 28 29 30 30 33 29 29 29 29 28 28 29 29 28 28 29 30 31 32 32 33 34 36 36 36 36 35 35 36
31 32 29 30 32 32 31 30 29 30 29 29 29 29 31 31 30 31 29 30 32 34 35 32 32 30 30 30 29 28 31 34 36 38 40 40 39 39 39 40 41 42 43
34 33 32 32 32 33 33 32 31 32 30 31 30 31 31 31 30 28 29 29 30 32 33 33 31 31 31 31 31 31 32 33 35 36 38 38 39 40 40 42 43 44 45
37 35 34 34 34 33 34 33 33 33 32 32 31 31 31 29 29 28 28 27 27 27 27 27 28 30 30 30 31 32 33 33 35 36 38 39 39 40 42 43 44 44 46
40 39 37 37 34 34 35 35 33 35 33 32 31 31 31 31 31 32 31 30 29 29 28 29 30 32 32 33 34 33 33 34 35 36 37 38 39 40 41 42 44 45 46
42 41 41 40 39 38 38 38 37 35 33 34 33 34 32 33 34 34 35 34 33 32 31 31 32 32 34 34 34 35 36 37 37 38 38 38 39 41 42 43 45 46 47
47 46 45 43 43 43 42 43 41 39 38 37 37 37 35 35 37 37 38 38 37 36 35 34 35 35 34 35 36 37 37 38 39 41 42 43 44 44 45 46 47 49 51
50 50 49 47 47 47 46 46 45 42 41 41 40 38 38 37 38 39 39 40 40 39 39 38 39 39 38 39 39 39 40 41 42 44 46 47 48 48 48 50 52 53 54
54 53 53 51 49 51 51 49 49 46 45 48 46 43 42 44 44 44 44 43 42 42 42 42 43 43 42 44 44 44 44 44 45 48 49 51 52 53 53 53 56 56 57
59 57 56 54 52 51 52 50 51 51 49 49 46 45 44 47 47 47 48 47 44 43 44 45 46 45 45 47 47 47 47 48 49 50 52 52 54 57 60 61 59 58 59
59 59 58 57 55 53 54 52 52 52 51 50 49 46 46 45 46 48 48 46 42 44 47 48 47 48 50 51 51 50 51 51 54 54 56 58 60 61 61 61 63 65 65
60 60 61 61 60 57 56 55 54 52 51 49 46 46 45 45 45 48 47 47 46 49 49 50 48 50 53 53 54 53 54 56 58 59 63 63 62 63 65 67 70 68 68
66 64 62 62 61 59 58 57 55 53 52 52 49 46 46 46 47 49 49 49 53 50 50 51 51 56 55 53 55 54 56 58 62 67 65 65 67 68 69 68 69 69 69
74 72 68 64 61 60 58 57 56 54 52 59 52 48 46 47 48 49 51 54 54 53 52 50 55 54 54 58 58 61 64 68 68 67 68 69 70 69 67 67 69 71 73
74 75 73 71 67 61 60 60 59 57 52 48 48 51 50 50 50 54 53 50 56 55 51 52 58 58 63 64 63 64 68 71 70 70 71 70 70 69 70 71 72 73 76
76 73 73 72 68 68 66 63 59 59 57 63 59 54 53 54 54 63 54 51 56 50 52 54 61 64 65 66 69 70 73 71 71 72 71 72 72 72 74 75 77 80 85
64 67 70 67 64 65 62 60 60 61 61 60 59 55 52 53 59 59 59 54 60 61 54 55 56 58 61 66 71 72 71 72 72 72 74 74 75 77 80 82 85 90 94
44 50 58 60 61 59 59 56 56 55 56 56 53 54 54 55 57 67 60 58 60 58 62 62 57 62 63 68 72 73 72 71 71 75 77 78 80 84 87 89 89 82 73
38 36 40 46 52 52 52 53 52 51 48 46 49 51 53 60 60 62 62 62 62 68 66 60 63 63 65 69 72 71 70 71 73 78 80 83 86 90 88 77 67 67 69
35 32 29 35 39 41 43 44 47 52 45 45 48 51 52 61 62 61 64 60 64 62 61 62 65 63 67 68 69 71 72 74 77 83 84 85 88 75 61 62 67 69 62
18 25 23 28 28 29 32 37 43 36 34 43 48 48 58 56 54 60 63 50 54 58 63 64 62 64 67 70 72 75 78 81 82 85 86 80 65 51 58 62 58 55 53
6 19 21 18 15 18 22 34 36 38 39 42 47 40 54 46 49 45 48 51 54 55 58 62 66 71 74 78 81 83 85 85 83 78 67 47 48 50 54 52 53 52 50
9 4 6 14 19 26 27 28 29 31 35 45 37 42 40 44 45 47 48 50 53 58 63 69 74 78 82 85 86 84 81 74 59 46 46 40 48 49 45 47 47 44 45
9 2 5 10 16 16 22 34 36 34 29 30 33 37 40 42 44 46 50 54 59 65 71 77 82 84 81 79 76 69 54 39 35 38 43 41 47 44 36 37 38 41 45

GFSMA_500_spd_036.txt.gz
Wind_Speed
28 27 27 27 27 28 28 28 30 30 29 28 26 25 24 24 24 25 25 26 29 30 31 29 29 30 29 28 27 27 26 26 26 27 27 27 26 25 25 24 25 26 26
29 29 29 28 29 30 30 31 31 31 31 30 28 28 26 25 26 26 28 30 31 31 28 27 27 26 26 26 27 28 28 27 27 27 27 27 28 27 27 28 29 29 29
31 30 31 30 31 32 33 33 32 32 31 30 29 28 28 28 28 29 30 28 29 26 27 29 31 33 32 31 28 27 29 28 28 29 31 32 33 35 36 36 36 36 36
34 34 34 33 33 34 35 35 32 32 33 31 31 30 29 30 30 29 27 26 24 24 25 26 26 28 29 28 28 29 30 30 30 31 31 33 34 35 36 35 35 36 37
36 38 37 37 37 36 37 36 34 34 34 33 33 32 31 31 31 29 27 26 25 25 25 24 24 24 24 24 25 27 29 30 31 32 33 34 35 35 35 36 37 38 39
40 41 40 40 40 40 39 39 38 36 35 35 35 34 33 32 31 29 28 28 29 28 28 28 27 26 25 25 27 29 31 32 33 33 34 34 35 35 36 35 36 36 37
46 45 43 43 43 43 42 41 39 39 37 37 37 35 34 31 31 31 31 31 31 32 32 32 32 31 30 29 29 30 31 32 33 34 34 36 36 36 37 37 37 37 38
50 50 48 48 48 46 45 44 42 42 40 40 38 38 35 34 33 35 35 34 34 35 35 36 36 35 34 33 33 32 33 34 35 36 36 36 37 37 38 39 41 41 41
52 52 53 53 52 51 48 47 46 46 45 44 42 42 40 39 38 37 37 36 36 37 38 39 39 39 38 37 37 36 36 38 38 38 39 39 39 40 41 42 43 44 46
56 55 54 56 56 54 52 49 49 49 49 48 46 44 46 44 41 40 38 38 39 41 42 43 44 43 43 42 42 42 41 42 42 41 41 41 41 43 44 46 46 48 48
58 59 57 56 58 56 55 52 52 53 53 53 50 49 50 48 46 48 44 42 42 44 43 44 46 47 47 46 46 45 45 45 46 45 45 45 45 47 47 45 47 49 51
56 61 63 61 60 61 59 57 56 56 55 55 51 49 48 46 46 45 45 43 44 45 45 46 47 41 47 49 50 48 47 48 49 47 48 48 49 50 50 50 53 54 57
56 56 60 65 66 65 64 64 61 59 58 56 54 54 54 55 52 52 48 46 47 48 47 45 45 44 49 51 52 54 52 50 52 52 49 51 51 54 55 57 61 61 62
62 63 63 62 63 67 70 67 65 63 62 60 59 58 57 55 53 51 49 47 49 47 51 50 49 51 54 56 55 54 55 56 56 53 52 54 57 59 62 64 65 66 67
64 66 67 67 67 65 65 68 67 65 63 62 61 60 57 55 54 51 50 48 49 52 53 54 59 55 54 59 60 60 60 59 57 59 63 63 64 64 66 69 69 71 72
66 67 67 67 67 68 67 66 66 66 64 63 61 58 58 57 56 58 55 46 52 52 58 59 61 52 59 64 63 63 60 64 62 65 69 67 69 71 73 71 73 74 76
71 72 70 70 68 67 67 67 66 66 64 63 61 57 54 56 48 51 46 48 57 60 57 60 65 60 59 65 63 62 63 63 66 69 70 72 73 72 72 75 77 77 75
72 74 72 70 69 68 66 63 65 63 63 62 62 60 59 59 59 68 59 59 62 59 61 62 64 57 65 66 64 66 65 62 62 64 68 70 71 72 76 77 76 76 75
62 61 59 59 57 59 65 60 59 62 64 63 62 62 62 59 57 60 56 60 61 61 67 62 64 66 64 69 69 67 65 64 67 71 69 69 72 73 74 76 77 79 81
41 42 47 50 53 49 51 53 52 53 56 58 59 62 62 59 56 61 58 60 62 64 65 69 69 65 65 70 67 66 67 68 71 69 70 69 73 77 79 81 83 86 89
27 32 33 33 38 40 39 42 42 43 43 46 50 53 50 52 48 51 50 59 62 63 57 57 62 67 65 58 60 65 67 67 66 71 73 75 79 83 85 88 90 90 89
25 27 26 33 31 35 29 26 28 30 35 39 40 44 49 48 48 52 58 59 60 66 66 67 58 54 60 63 63 63 67 70 72 79 80 83 88 88 89 86 80 72 62
17 15 19 17 16 15 15 18 22 28 31 31 36 35 39 43 46 50 50 56 62 52 52 53 55 58 61 62 66 69 75 79 83 86 87 85 86 78 69 57 53 53 53
14 7 9 16 15 14 13 14 15 22 25 26 33 40 38 45 46 49 44 48 50 49 50 52 55 59 64 69 73 77 83 85 84 83 81 76 63 48 42 48 53 54 54
7 12 2 6 9 17 13 16 25 21 20 29 32 36 37 43 42 45 43 44 46 50 54 59 62 65 69 75 79 81 79 77 75 68 55 36 36 36 41 48 52 52 50
12 8 5 3 13 13 12 14 20 21 23 29 31 31 33 35 37 41 42 45 50 54 58 63 67 70 73 74 74 72 68 55 39 29 29 31 38 39 36 43 46 46 45

GFSMA_500_spd_039.txt.gz
Wind_Speed
30 29 28 27 26 27 28 28 29 30 30 30 30 29 29 28 26 25 24 23 25 27 29 30 27 25 25 25 25 25 24 23 23 23 23 24 24 25 24 24 24 23 23
31 30 29 28 29 29 31 30 31 32 31 31 32 31 31 29 28 28 25 27 27 29 27 26 22 23 24 26 26 27 25 23 23 23 24 25 26 27 27 28 28 28 29
34 32 32 31 32 32 32 33 34 33 32 33 33 33 32 31 30 30 29 28 30 28 25 22 21 21 21 22 22 22 21 24 25 25 25 26 27 28 30 31 32 34 33
37 37 35 34 35 35 35 35 36 37 35 35 35 34 34 33 32 31 31 30 30 27 24 22 22 21 22 22 21 22 21 22 24 26 26 27 28 29 30 32 32 32 32
40 40 39 40 39 38 38 38 38 39 39 37 37 36 36 35 34 33 32 32 31 27 27 26 25 25 25 25 24 24 24 25 26 28 29 30 30 30 31 31 32 32 32
42 43 43 44 44 43 42 42 43 43 42 39 39 38 37 37 36 35 34 33 32 30 29 30 29 28 28 29 28 28 28 28 28 29 30 31 32 32 33 33 33 33 33
45 44 44 46 47 47 46 46 46 46 45 45 43 41 40 38 37 35 36 35 34 33 32 32 32 31 31 32 32 33 32 31 31 32 32 33 33 33 33 34 34 35 35
46 48 47 47 48 50 50 50 51 51 48 48 47 45 43 42 38 38 38 37 37 37 36 36 34 33 33 34 35 35 36 36 36 35 36 35 35 36 36 36 36 37 37
52 51 52 51 52 51 52 54 54 54 54 52 50 49 48 44 43 43 42 42 42 42 41 38 37 37 38 38 39 39 40 41 40 39 39 39 38 38 38 38 39 40 41
55 54 54 54 54 54 53 55 56 54 54 51 52 52 51 50 47 45 46 47 49 47 46 42 41 40 41 40 40 41 44 45 44 43 43 43 43 42 42 42 42 43 43
55 56 57 57 55 56 56 57 57 58 57 57 56 55 56 54 52 50 49 52 53 50 41 41 42 42 40 42 44 43 42 44 46 47 47 47 47 46 47 46 47 46 46
52 53 55 58 59 60 61 60 61 61 61 61 60 58 55 55 55 53 51 49 49 44 44 42 43 42 42 45 43 43 44 45 48 52 50 52 52 49 49 49 50 48 46
54 55 57 58 59 61 63 64 64 64 63 64 62 61 62 60 56 55 59 54 52 53 53 54 50 47 46 48 48 47 47 52 51 50 55 55 54 57 56 54 52 51 55
57 59 61 64 65 65 66 66 64 64 65 65 64 63 62 62 61 60 59 48 59 59 58 56 52 50 48 53 55 52 53 53 58 56 54 60 60 61 61 58 60 62 61
59 60 62 63 65 66 68 69 69 68 64 64 64 62 61 63 61 61 63 65 64 61 54 58 57 52 51 54 54 54 60 62 56 58 61 63 66 66 64 65 64 67 67
57 62 65 66 67 67 66 67 67 67 68 67 65 63 61 59 59 60 56 63 58 61 61 62 59 47 53 56 57 63 61 63 53 55 61 63 62 64 67 70 70 70 70
63 65 68 71 74 75 69 63 64 66 63 63 66 66 63 62 59 58 59 59 56 50 51 53 50 49 55 56 59 59 62 67 67 65 65 64 65 66 71 70 68 68 70
59 60 58 62 75 72 68 57 58 62 63 62 62 64 65 62 60 56 58 57 58 55 59 60 57 56 58 56 67 68 70 64 68 65 65 70 70 70 72 71 73 73 73
51 57 53 50 51 57 52 54 54 53 56 57 57 59 60 60 59 58 58 61 56 61 62 64 60 58 62 64 65 67 73 74 72 68 70 65 63 64 68 72 74 72 74
39 45 44 41 31 39 44 45 46 41 45 47 50 54 57 57 57 58 59 60 61 62 62 63 70 61 62 65 66 68 68 69 64 60 61 63 65 67 69 71 73 77 80
34 40 38 34 31 32 25 28 33 39 39 44 42 46 50 50 52 53 47 57 55 52 57 61 59 61 65 67 69 68 62 60 60 62 63 66 68 71 75 79 82 85 87
28 34 34 29 24 24 23 29 27 28 27 37 37 40 40 44 38 36 46 51 50 56 57 62 63 63 65 69 60 61 59 60 64 69 70 73 76 78 82 85 85 84 83
25 29 27 27 21 21 20 22 22 26 31 28 28 32 29 33 40 36 40 43 45 46 51 55 54 56 56 55 58 60 63 67 71 75 76 78 79 78 78 78 76 68 59
20 22 23 18 15 15 14 14 13 15 16 16 18 20 25 20 26 31 40 42 46 53 50 47 49 52 55 58 62 65 68 71 75 77 76 72 73 65 54 47 42 40 42
21 19 16 15 10 15 15 10 11 12 19 12 13 17 22 28 31 35 40 45 47 43 45 49 53 56 60 63 65 68 70 71 70 67 62 51 43 35 33 37 39 42 44
18 18 15 15 14 16 16 15 15 13 9 12 16 23 29 31 29 30 31 33 38 44 49 52 56 60 63 65 66 66 65 58 52 45 40 37 38 36 33 37 39 41 43

GFSMA_500_spd_042.txt.gz
Wind_Speed
26 25 26 25 27 27 28 28 29 29 29 29 28 28 28 28 28 25 26 26 27 26 26 27 27 24 20 19 18 19 19 19 18 18 18 19 18 18 19 19 19 20 21
29 28 28 26 28 29 30 30 31 31 32 31 31 32 31 31 30 28 25 28 27 27 27 28 27 21 18 17 16 16 17 16 17 18 19 20 19 19 21 22 22 24 25
30 29 30 30 29 33 32 32 32 32 33 33 32 32 32 33 33 33 28 29 30 29 29 29 26 21 19 17 17 17 18 17 17 17 20 21 22 22 22 23 24 25 26
33 33 33 32 33 36 36 34 34 35 36 36 36 35 34 34 34 35 32 29 31 31 31 30 27 24 23 22 20 20 20 21 20 20 20 22 23 23 23 25 26 26 26
36 37 37 37 36 37 38 38 37 39 39 40 40 38 36 37 37 35 35 34 31 33 33 31 29 28 28 27 26 25 25 24 25 24 24 24 25 25 24 25 26 27 28
38 40 40 40 39 38 39 40 42 42 43 43 44 43 41 41 40 38 37 37 36 33 33 33 32 32 31 30 30 29 29 29 29 29 29 28 29 29 28 27 28 28 29
39 42 42 43 43 43 41 43 43 44 46 47 47 46 46 44 42 40 40 39 38 37 33 34 36 35 35 34 32 31 30 30 31 31 32 32 32 33 32 32 32 32 32
46 45 44 45 45 45 47 46 47 48 49 50 51 51 50 48 45 45 43 42 42 40 38 38 39 40 40 38 36 34 33 35 34 34 35 35 35 35 36 35 35 36 37
49 48 49 47 48 48 49 49 49 49 48 50 51 52 53 50 49 48 47 46 45 44 43 42 43 43 44 43 42 38 38 39 38 38 38 39 38 38 38 39 39 39 40
51 52 52 52 51 50 52 50 50 52 53 53 55 53 53 53 49 49 49 49 49 48 46 47 47 49 50 53 47 42 44 40 40 41 40 40 39 40 41 41 41 42 42
49 51 53 54 55 55 53 54 56 55 54 56 56 55 56 55 54 54 54 52 53 51 50 48 50 48 43 43 39 44 46 40 37 39 40 41 41 41 43 45 44 45 47
49 48 49 53 54 56 58 58 59 59 59 57 57 57 57 58 57 56 56 56 55 53 52 52 50 49 45 41 41 44 44 43 44 45 45 43 45 48 47 46 49 50 49
47 49 52 53 55 58 60 62 64 64 65 63 61 61 61 60 59 58 59 57 56 57 57 56 55 52 49 52 52 54 50 47 45 50 49 50 50 52 53 55 51 52 55
48 51 53 56 58 60 61 63 65 66 69 69 68 65 62 62 62 60 58 59 60 57 57 58 61 61 51 56 60 60 49 51 48 51 54 54 56 53 58 59 60 59 58
49 48 50 53 54 57 59 63 66 67 69 69 68 69 66 63 63 61 59 57 56 56 56 55 56 57 55 50 59 51 49 47 45 51 53 60 62 60 58 54 54 59 63
43 45 47 49 52 57 61 66 68 68 69 70 68 67 67 64 62 62 61 58 55 54 53 53 57 61 57 49 49 42 46 44 51 54 58 52 52 54 56 57 58 61 62
40 43 43 48 54 58 61 63 62 59 61 65 65 65 62 60 58 59 59 59 59 57 58 59 53 56 50 45 43 43 50 55 56 58 64 63 60 62 67 68 67 65 66
36 36 43 45 52 58 61 59 52 52 50 56 56 61 57 55 57 60 59 59 59 60 61 65 60 58 49 46 43 46 48 61 56 63 62 63 65 69 64 63 67 72 71
37 39 39 39 44 52 50 46 42 40 44 44 46 48 53 53 52 54 54 55 57 57 61 59 62 58 62 56 52 55 64 60 61 64 64 66 68 68 69 69 66 65 64
36 36 32 36 39 41 38 34 36 34 34 34 37 40 40 48 48 47 50 49 53 55 57 58 58 59 59 58 58 63 62 62 67 65 67 65 65 60 60 61 62 64 67
35 33 30 34 33 33 34 34 34 34 34 32 30 31 35 43 46 45 43 45 46 47 49 53 54 54 52 53 56 58 58 61 59 57 57 59 60 62 65 68 69 71 73
32 28 29 28 30 30 30 31 33 33 31 29 25 23 31 34 34 38 43 39 39 40 47 55 56 51 50 51 52 54 56 53 55 58 60 64 64 67 70 72 73 74 75
30 28 28 24 24 23 24 24 24 26 24 23 21 24 25 21 24 27 33 36 35 39 39 38 44 46 49 51 50 52 55 57 60 63 63 66 68 69 71 71 70 68 66
23 24 25 21 24 23 25 24 22 21 20 20 19 14 15 12 16 19 24 21 24 29 33 38 41 40 43 48 52 56 59 60 63 65 66 68 67 64 60 57 52 48 46
24 25 24 24 22 22 22 22 21 17 18 14 11 10 10 11 17 21 24 28 28 29 30 33 37 42 46 51 55 59 61 65 68 67 64 58 55 51 48 48 46 45 44
25 24 23 22 22 21 22 20 18 18 17 16 14 16 21 19 19 20 23 25 29 32 35 39 42 47 52 56 60 62 65 65 59 54 50 49 49 46 44 46 45 44 43

GFSMA_500_spd_045.txt.gz
Wind_Speed
22 23 24 23 24 25 25 25 26 26 28 29 29 28 29 28 27 26 27 28 28 28 27 26 27 26 26 22 19 17 15 14 14 15 15 15 15 16 16 16 16 16 17
24 23 23 24 24 27 27 27 28 28 29 31 31 30 30 30 29 28 27 29 28 29 29 28 29 28 26 22 19 18 16 15 15 15 15 17 18 18 19 18 18 19 19
27 26 27 26 26 27 30 30 31 32 31 32 33 33 33 32 31 31 30 29 30 30 30 30 29 29 28 24 23 21 20 19 18 17 17 18 19 20 21 22 21 21 21
30 30 30 29 31 31 32 32 32 32 34 36 36 37 37 36 36 34 32 31 32 32 33 32 31 31 29 27 27 26 25 24 24 23 22 21 21 21 22 22 22 23 23
34 34 33 32 33 35 36 37 38 37 35 38 39 39 39 39 38 38 36 35 33 34 35 34 33 32 32 30 30 31 31 30 29 28 27 26 26 25 25 24 24 24 25
34 35 37 38 37 37 38 40 41 41 41 41 42 42 42 42 42 40 39 37 37 35 37 36 36 36 35 34 33 34 34 33 33 32 31 30 30 29 29 29 28 27 27
36 37 39 41 42 41 41 42 43 42 43 46 47 47 47 47 46 45 43 42 39 39 39 39 38 38 38 37 36 37 37 35 36 35 34 32 32 32 33 32 32 31 31
40 41 41 42 44 43 43 44 45 46 47 47 48 49 49 49 46 47 46 44 45 43 42 42 42 41 41 41 40 39 37 42 39 40 38 36 37 36 37 37 35 35 35
47 45 44 44 45 45 46 46 47 47 49 49 49 51 51 50 51 50 48 47 46 45 44 44 45 47 47 47 44 45 48 50 50 46 44 41 40 39 38 40 39 38 39
47 49 48 46 48 49 51 52 52 50 52 50 52 52 55 56 55 53 50 48 48 49 49 47 48 48 45 47 50 46 46 50 48 51 49 46 48 43 44 42 40 39 38
46 48 50 51 50 51 51 52 54 53 53 54 55 56 58 56 58 57 55 52 51 51 52 50 49 50 51 47 45 45 48 47 43 46 49 50 49 44 41 39 38 39 40
46 46 47 48 49 50 51 52 53 55 56 58 59 61 62 62 61 60 58 57 54 54 55 54 52 51 52 51 50 50 52 53 43 40 42 48 48 48 46 46 47 44 45
46 45 43 44 46 48 51 54 54 55 58 61 63 63 65 66 66 65 64 62 62 60 55 52 50 52 53 54 55 55 55 51 52 47 49 52 54 50 51 50 47 49 51
43 43 44 46 46 48 49 50 52 52 54 59 63 66 68 68 68 69 67 67 66 63 62 60 56 54 54 57 59 55 55 57 57 52 44 44 45 44 45 47 51 53 55
42 43 43 43 44 45 47 48 50 53 57 62 68 71 72 71 72 70 68 67 65 64 61 60 57 53 46 59 52 60 58 56 53 49 50 49 45 45 44 49 53 56 58
39 40 41 39 40 42 41 44 47 52 57 60 66 65 64 67 66 67 64 64 66 65 64 61 60 44 59 55 53 54 44 47 44 42 46 42 43 43 47 51 55 58 59
37 37 37 37 37 39 42 44 44 50 51 54 49 46 52 57 59 56 59 53 55 60 61 59 60 59 56 55 47 49 58 39 39 35 43 48 48 50 56 60 58 57 59
35 33 33 34 37 40 39 41 45 44 45 49 46 45 47 50 48 47 51 58 54 55 54 52 54 58 57 56 65 40 35 51 60 59 52 55 58 54 56 55 59 64 61
33 34 34 33 38 39 37 37 38 37 40 44 46 43 44 42 40 40 40 39 46 47 47 51 50 51 46 36 47 55 62 58 56 56 56 58 62 60 59 60 59 60 59
33 34 34 36 35 35 35 35 33 33 34 38 42 39 36 37 36 34 34 31 34 36 42 47 43 38 48 57 58 53 56 57 53 51 53 54 53 53 52 52 53 54 56
32 31 34 33 33 35 31 31 30 31 30 33 33 34 31 28 26 26 27 29 31 34 37 43 53 47 41 45 51 54 51 46 49 50 50 49 48 51 54 56 57 59 61
29 31 32 32 32 30 30 30 31 30 29 31 32 30 29 23 21 19 13 24 29 37 37 36 37 37 42 43 46 49 55 44 41 46 49 53 54 57 58 59 60 63 66
28 30 28 27 28 29 30 29 29 28 25 24 24 26 23 20 18 15 18 16 16 21 27 35 38 37 35 35 38 42 43 44 48 52 53 58 59 62 62 63 64 65 65
27 26 26 27 28 29 28 27 25 23 22 20 21 22 25 21 20 20 19 19 14 15 19 23 26 29 33 36 39 42 46 50 54 57 58 61 61 64 64 63 61 59 56
23 24 25 26 27 26 25 22 21 20 19 20 19 19 19 20 20 20 19 20 20 22 23 26 30 34 38 42 45 49 52 55 58 59 60 62 62 58 54 54 54 52 50
22 24 25 24 22 21 19 18 17 17 17 18 18 19 20 21 22 23 24 25 27 29 31 33 35 38 41 45 49 51 53 57 61 63 61 55 51 48 51 52 49 46 44

GFSMA_500_spd_048.txt.gz
Wind_Speed
21 23 24 23 24 27 28 27 28 28 29 29 30 30 30 29 28 28 28 29 29 28 28 26 26 26 26 26 26 24 22 21 20 19 17 18 17 16 17 17 18 18 17
23 24 26 27 27 28 30 28 29 29 29 30 32 34 34 32 32 32 30 28 30 31 29 29 30 28 28 28 27 25 24 23 22 20 19 19 19 18 19 19 20 20 20
26 27 27 28 29 29 30 31 31 31 32 32 34 36 36 36 35 34 34 32 31 31 31 30 30 31 30 30 29 28 27 26 25 24 23 21 21 21 21 22 23 23 22
29 29 29 30 31 31 31 32 34 34 35 36 37 39 39 39 39 39 36 36 35 34 33 32 32 32 33 34 33 31 30 30 29 29 27 27 26 25 25 24 24 24 24
32 33 32 31 32 33 34 35 37 37 37 38 40 42 42 43 43 43 42 41 39 39 37 36 35 34 36 36 37 35 33 33 33 33 33 32 31 31 29 28 28 27 27
34 36 36 34 36 36 37 39 39 40 40 41 42 44 44 44 45 46 45 45 44 42 42 41 39 37 37 37 38 39 38 36 36 36 36 36 35 34 34 33 32 32 31
36 37 37 37 38 40 42 43 43 43 43 44 46 45 46 47 47 47 47 46 45 45 45 44 44 42 41 40 40 40 41 41 40 39 39 38 36 41 37 37 35 35 35
38 39 39 39 41 43 44 45 45 45 45 46 46 48 47 48 47 50 52 51 48 48 45 43 44 45 46 44 45 45 44 44 44 44 42 42 42 44 42 41 39 39 39
41 42 43 43 43 44 43 46 47 48 48 48 49 51 51 51 53 53 54 55 54 54 50 47 47 48 47 46 47 45 43 44 50 51 47 54 50 50 49 48 45 44 43
45 46 48 48 47 44 46 48 49 48 49 48 50 51 52 52 53 55 56 58 58 58 55 52 52 51 50 50 48 49 50 48 44 44 48 47 47 43 51 54 50 49 49
45 46 48 49 49 49 49 49 49 48 49 50 51 51 46 56 57 58 58 60 63 62 61 57 53 51 52 51 51 49 50 51 50 48 45 47 47 46 48 56 56 56 56
44 45 46 48 49 50 50 49 49 49 50 51 53 52 53 55 56 59 61 62 69 66 65 66 61 58 52 48 51 54 56 54 53 51 49 46 46 49 51 51 53 53 52
43 44 46 45 44 45 47 48 49 50 50 50 52 51 54 56 59 62 66 68 69 57 60 67 68 63 62 56 52 49 48 55 53 52 54 53 56 56 52 49 54 54 55
44 46 46 44 44 45 47 47 47 48 47 46 47 50 52 57 61 60 65 69 71 73 73 61 70 66 65 60 61 59 59 52 54 52 55 58 59 55 54 54 53 52 57
46 46 45 45 46 45 45 45 42 42 42 44 46 48 53 53 55 60 61 57 59 64 64 74 59 62 64 63 59 58 57 57 65 42 41 49 45 50 48 49 49 49 50
44 44 44 44 42 41 38 38 37 40 41 42 46 46 46 49 52 53 52 53 55 61 58 56 56 59 57 60 56 54 58 55 59 56 40 44 47 40 38 36 44 43 40
42 42 41 39 38 34 34 35 37 39 42 43 44 43 45 47 49 50 46 50 54 53 47 46 49 50 54 55 60 64 49 54 50 48 39 40 39 39 42 41 49 51 49
38 37 36 33 33 33 36 39 37 38 41 43 41 41 43 44 43 44 45 48 41 40 44 47 46 29 36 49 48 52 39 44 51 57 56 50 52 56 58 52 52 55 53
34 33 33 32 33 34 35 37 37 40 41 39 40 39 39 41 41 45 44 40 36 32 32 27 27 36 25 31 40 33 47 42 33 34 46 46 51 52 53 55 54 55 54
31 32 33 34 34 33 36 37 38 39 37 39 40 38 36 37 36 36 34 32 28 22 22 21 21 25 30 41 44 38 32 41 49 48 48 48 51 47 47 52 53 49 47
32 32 31 31 33 34 35 35 35 35 36 37 37 36 33 32 31 30 28 29 28 20 20 24 28 28 30 34 36 46 43 36 42 47 46 46 51 49 44 44 48 50 51
34 30 29 30 32 34 32 32 33 34 33 33 33 31 30 30 28 28 26 26 26 22 18 18 21 23 29 31 34 37 41 46 47 46 44 45 45 46 47 49 53 55 56
30 29 31 31 32 31 31 31 32 32 32 29 27 25 25 26 25 25 24 24 23 21 20 21 20 19 21 27 31 34 36 38 40 44 44 46 52 52 55 56 59 60 61
27 27 28 29 29 30 30 29 29 28 26 25 22 22 22 22 23 23 23 23 23 23 23 24 24 25 26 29 32 35 39 42 45 49 50 54 56 59 60 61 63 63 61
25 26 27 27 28 29 27 25 24 23 23 22 22 21 22 24 25 25 26 26 27 28 28 30 32 33 34 36 37 40 44 47 50 52 53 55 57 60 62 63 61 58 54
24 24 25 27 28 27 24 23 22 22 21 21 23 24 25 25 26 27 29 30 32 33 34 35 36 37 39 40 41 43 45 47 49 52 56 60 62 61 59 55 50 47 45

GFSMA_500_spd_051.txt.gz
Wind_Speed
24 24 25 25 25 25 25 27 28 28 30 31 31 33 34 34 33 33 33 33 32 33 32 30 29 28 28 29 29 29 28 26 25 24 24 22 22 21 21 21 20 20 19
26 26 26 26 27 26 27 29 30 31 31 32 32 34 36 36 35 35 36 35 35 36 36 34 33 31 30 30 31 31 30 29 27 26 25 24 23 23 23 23 23 22 22
27 27 28 28 30 29 31 32 34 34 34 34 35 36 37 38 38 38 38 38 39 39 39 38 36 34 32 32 31 32 33 33 30 29 28 26 26 26 25 25 26 26 25
28 29 29 30 32 32 33 34 36 37 37 37 38 38 39 41 41 40 40 42 42 41 41 41 41 39 38 37 35 34 35 35 34 32 32 31 30 30 30 29 28 27 27
31 32 31 32 34 35 35 36 37 38 40 40 40 42 42 43 43 43 44 44 44 45 44 44 44 43 43 42 40 39 37 37 37 36 35 36 35 34 34 34 33 32 31
34 34 34 34 36 36 36 39 39 41 42 43 43 43 43 43 45 45 46 47 46 47 47 46 45 44 45 45 44 43 43 41 40 40 39 38 39 38 38 36 36 36 36
36 36 36 38 39 38 39 41 43 44 45 45 45 43 43 45 45 47 49 50 50 50 50 51 50 48 45 43 44 46 46 45 44 43 42 42 42 42 40 38 38 38 39
38 39 39 39 40 41 42 44 46 47 47 47 47 49 47 47 46 48 50 52 52 52 52 52 52 52 52 46 47 48 48 47 48 46 45 46 46 45 45 43 42 42 41
41 40 40 41 41 43 45 46 47 47 48 48 49 50 50 49 48 48 50 50 53 50 54 54 56 56 54 51 48 48 48 49 49 49 47 42 39 39 48 49 54 51 47
44 42 41 42 45 47 49 48 47 47 49 49 49 48 49 50 50 49 49 51 51 51 53 54 55 57 59 60 58 54 51 53 49 52 50 52 52 46 38 39 37 40 41
45 44 45 47 49 51 51 49 48 50 49 48 48 50 51 52 51 51 47 48 52 54 55 58 60 61 60 64 65 59 54 53 61 52 56 51 49 49 47 49 43 41 38
43 45 47 48 50 51 49 49 51 52 51 49 51 51 50 49 47 48 50 51 54 57 58 59 61 61 62 66 65 65 59 57 57 51 54 62 49 49 48 49 49 45 39
44 46 48 49 49 48 48 50 51 50 50 51 51 49 46 46 47 49 51 52 53 54 58 62 64 63 63 63 52 61 59 61 56 60 48 54 47 54 50 49 52 49 49
47 48 48 46 46 46 47 47 48 48 49 47 43 41 42 44 43 48 50 49 52 55 57 58 55 58 61 58 59 64 56 66 70 67 65 59 49 40 46 58 53 53 55
48 47 46 45 46 46 45 47 47 45 43 38 37 41 39 42 45 46 45 48 51 51 53 55 56 54 59 58 55 61 63 52 53 71 61 62 54 49 52 43 42 50 48
45 44 44 45 45 45 46 45 43 38 36 37 39 41 40 43 45 43 44 46 46 49 53 56 51 44 41 40 43 49 50 57 47 54 56 49 49 47 48 45 39 39 38
42 42 42 43 44 44 42 40 35 35 38 40 41 41 42 42 44 43 42 45 43 45 51 51 43 43 44 46 40 38 43 42 44 46 52 41 43 42 35 38 41 34 28
40 40 40 41 41 40 38 35 34 36 37 39 40 41 42 42 44 42 41 42 40 42 45 46 35 35 37 27 27 23 17 36 47 44 49 53 44 45 49 39 43 49 50
37 37 37 36 36 35 35 36 37 36 39 40 39 40 40 41 43 40 41 40 37 40 40 38 33 30 26 22 23 29 27 21 27 21 36 47 40 37 34 35 37 41 44
35 34 34 34 33 34 34 34 35 37 39 39 37 38 39 39 38 37 37 35 34 34 33 32 31 30 29 27 25 22 22 26 29 28 26 33 35 42 43 41 41 44 44
32 32 33 35 37 36 34 33 35 38 38 37 38 38 38 37 34 32 31 29 28 28 29 29 28 27 26 24 24 28 28 27 28 32 38 39 42 44 45 43 38 39 42
31 32 33 35 35 34 35 34 36 36 37 38 37 34 31 29 27 24 23 25 26 27 28 27 28 29 28 27 26 25 25 27 26 30 35 37 37 39 40 39 40 43 45
27 29 30 31 32 32 31 33 34 35 36 35 29 27 26 25 24 25 25 27 27 28 28 28 29 29 29 30 30 31 31 33 35 36 36 38 44 43 46 48 50 51 52
24 26 27 28 29 30 30 32 34 34 33 28 26 25 25 25 25 27 28 29 29 30 31 32 33 34 34 34 34 35 37 38 40 43 45 44 49 49 50 50 51 54 56
22 24 26 28 28 29 31 33 33 31 29 26 24 24 25 26 27 28 29 29 30 31 32 34 35 36 36 36 37 39 41 42 44 46 46 49 51 54 55 57 58 60 62
21 22 23 24 26 28 30 31 31 29 26 25 25 25 26 27 26 27 29 29 31 33 35 36 37 37 37 39 41 43 46 48 49 51 48 50 54 57 59 59 58 56 55

GFSMA_500_spd_054.txt.gz
Wind_Speed
25 25 24 24 24 24 24 25 26 27 28 28 31 33 34 35 35 34 33 34 35 36 36 36 36 36 35 33 32 31 30 30 30 30 29 27 25 24 24 24 23 22 21
26 26 25 25 26 25 26 27 28 28 29 30 33 34 35 36 37 37 36 36 38 38 37 37 38 39 39 38 36 34 34 33 31 32 31 29 28 27 26 25 25 25 24
27 27 27 28 29 28 29 30 30 31 32 32 34 36 37 38 39 40 40 40 40 40 40 41 40 40 41 41 41 39 38 38 37 35 35 33 31 30 29 28 27 26 27
29 28 29 30 31 31 31 32 32 33 34 34 36 39 40 41 42 41 42 42 41 41 42 41 43 43 43 43 43 42 41 40 40 39 38 37 36 35 34 32 31 30 28
31 30 30 32 32 33 33 33 34 35 36 38 40 41 42 43 44 43 43 41 43 44 44 45 45 46 47 43 42 44 43 41 41 42 41 39 39 38 37 38 36 35 33
33 32 31 33 35 36 35 36 36 38 39 41 43 43 45 45 44 42 43 45 47 46 48 47 47 48 46 46 46 45 45 44 41 43 44 43 41 41 40 40 40 39 36
35 34 35 36 38 37 39 39 38 40 41 44 46 45 46 45 44 42 43 44 46 47 46 47 47 48 49 47 47 46 47 46 46 47 46 47 45 44 42 41 42 43 41
38 38 39 39 41 41 40 41 42 42 44 46 48 49 46 44 44 45 45 45 45 46 48 50 49 47 48 50 50 49 48 47 46 48 50 49 48 49 46 42 42 44 43
41 41 40 43 44 43 43 43 44 45 47 47 48 49 49 48 48 45 45 45 46 47 48 48 47 48 50 50 51 52 51 51 50 49 49 53 52 51 51 46 38 34 39
45 43 45 45 45 45 43 43 47 49 50 48 47 48 49 50 48 46 47 46 43 43 43 44 47 49 50 51 52 56 59 56 56 49 52 58 59 44 55 46 48 47 44
46 47 48 47 47 44 43 46 50 51 49 48 47 47 47 47 46 47 45 41 41 41 43 46 48 48 50 52 55 58 57 61 53 57 54 59 60 50 50 53 51 46 47
48 48 49 48 46 45 47 50 51 50 48 48 49 48 48 48 46 44 40 39 38 40 44 44 46 47 49 53 57 59 60 57 56 57 59 58 57 54 58 54 56 49 47
48 48 45 42 44 48 50 51 50 48 47 48 48 48 49 47 43 40 40 40 41 42 41 43 44 45 47 53 59 60 60 61 58 56 71 60 62 67 44 39 44 56 50
43 41 42 43 47 50 50 48 47 46 46 46 47 46 44 38 39 40 41 42 42 42 41 43 44 46 50 54 56 51 52 47 54 60 62 69 53 61 71 55 44 43 37
41 42 44 48 50 48 46 44 44 44 45 44 43 40 36 39 41 42 41 42 43 41 41 40 41 43 46 49 41 46 48 47 42 44 50 56 31 44 57 66 59 50 42
46 48 50 51 47 44 42 42 43 43 42 40 37 36 37 39 41 42 43 42 43 43 41 41 39 42 41 41 37 35 35 33 34 41 38 32 48 27 34 50 49 40 38
50 52 49 46 42 41 41 41 41 41 39 37 36 37 38 41 42 43 43 41 43 42 41 39 37 36 37 36 33 30 33 33 30 25 21 25 29 36 36 34 29 32 31
50 46 43 40 40 39 39 39 38 37 36 37 38 38 39 42 42 42 43 42 41 40 37 35 32 31 31 32 32 32 28 25 25 18 19 24 28 34 34 37 37 46 37
43 40 39 38 37 37 36 36 35 35 36 38 38 38 40 41 40 42 42 40 40 35 34 29 27 28 28 29 30 31 29 27 22 19 15 18 24 25 28 30 30 33 32
38 37 36 35 35 35 35 36 37 38 38 38 38 39 39 39 41 41 39 37 33 30 27 27 28 29 28 30 30 30 29 27 25 21 23 24 26 27 31 34 35 38 41
35 33 33 34 34 34 36 37 37 37 37 38 38 37 37 39 39 35 32 30 26 26 28 29 28 28 28 29 30 30 30 29 28 27 26 25 27 31 35 36 40 38 39
31 30 29 31 32 33 34 35 34 35 34 34 34 36 38 37 32 29 27 26 27 28 30 29 30 29 30 31 31 30 30 30 31 31 31 33 32 34 36 37 38 39 40
27 27 27 27 29 31 31 30 31 31 32 33 35 37 35 32 28 27 27 27 29 30 30 31 30 31 32 33 33 33 33 33 32 33 35 38 40 41 42 41 42 43 45
22 21 23 25 25 26 27 28 29 30 33 34 35 34 31 28 28 28 28 29 30 31 31 31 31 32 34 35 36 35 35 35 37 38 41 43 46 48 48 47 47 47 48
21 22 21 20 22 23 23 25 28 30 32 33 32 30 28 28 29 30 30 29 30 31 32 33 34 35 36 37 37 37 37 39 42 45 49 51 53 53 51 49 50 50 51
21 19 19 19 20 20 22 23 26 29 31 31 30 29 29 29 30 31 30 31 32 34 34 35 36 37 38 39 38 39 40 43 46 50 53 54 52 49 49 51 53 55 57

GFSMA_500_spd_057.txt.gz
Wind_Speed
22 22 22 22 22 21 21 22 23 24 25 25 26 27 28 30 31 33 34 35 35 36 36 36 36 35 35 35 35 35 34 33 33 34 34 34 33 31 30 28 26 25 25
24 24 24 24 24 23 23 25 26 26 27 28 29 30 31 32 33 34 36 37 39 39 38 38 37 36 35 35 35 35 35 34 35 35 35 35 35 34 32 31 30 28 27
27 27 26 27 26 25 26 27 27 28 30 30 33 33 33 34 36 37 38 39 39 39 39 37 37 38 36 38 37 37 37 35 34 34 35 35 35 36 34 32 33 32 29
28 28 28 29 29 28 28 29 30 31 32 34 36 36 36 37 39 40 40 41 40 40 40 40 41 40 41 41 39 40 37 37 37 37 37 38 37 37 37 36 35 35 34
29 28 29 31 31 30 30 32 33 34 36 37 39 38 38 40 41 42 42 42 42 42 42 43 43 43 43 43 42 40 41 41 40 40 37 37 37 39 39 38 38 37 37
32 31 31 32 33 33 34 35 35 37 38 39 41 40 40 43 44 43 42 42 43 44 44 43 43 43 44 42 41 42 38 39 41 41 40 40 39 40 41 41 40 39 39
34 33 33 34 35 35 37 37 39 41 41 42 41 40 42 45 44 44 43 42 41 42 42 43 44 44 42 41 39 37 39 41 41 43 44 42 42 42 45 45 42 43 44
38 37 37 35 36 38 40 39 45 45 44 43 42 43 43 44 45 44 44 44 42 42 43 44 43 41 38 37 38 40 42 43 45 44 44 46 47 45 44 45 46 44 45
41 41 40 39 40 44 42 46 48 47 45 43 44 47 49 47 45 43 43 42 42 43 43 41 39 37 37 39 40 40 42 44 46 47 48 51 49 51 50 48 52 49 48
43 42 43 44 47 46 45 46 48 48 45 43 45 49 49 47 44 43 43 42 41 40 38 36 36 37 39 40 39 40 42 44 48 52 53 52 53 56 51 49 52 53 46
44 46 46 46 46 46 47 47 47 44 42 45 48 48 47 45 44 44 42 41 37 34 36 36 37 39 40 39 41 42 43 47 52 52 54 57 57 59 59 54 52 59 62
46 47 47 47 47 48 49 46 42 43 46 49 49 47 45 44 44 42 40 34 32 34 35 37 38 40 40 41 41 42 45 49 49 45 49 51 54 55 60 67 49 47 53
48 47 47 47 47 46 44 42 44 46 48 50 48 45 44 44 43 39 36 33 35 36 36 39 39 40 41 41 41 41 43 46 38 37 42 44 47 47 53 61 57 45 29
46 45 45 47 46 42 42 44 46 48 50 48 45 44 44 43 40 37 34 35 35 35 37 41 40 41 41 41 39 40 40 41 39 40 42 42 42 43 45 41 43 56 38
47 46 44 42 41 41 44 47 49 49 46 43 44 44 42 39 37 34 34 36 37 39 39 40 40 41 39 39 36 36 36 39 42 36 36 40 35 38 39 26 38 58 43
45 44 43 44 44 46 49 49 47 43 42 42 42 40 37 35 35 36 38 38 40 40 39 40 40 38 36 34 33 33 33 34 36 34 33 35 31 26 32 16 23 19 25
46 45 48 48 49 50 48 45 42 41 41 39 37 35 35 36 38 39 38 40 40 39 40 39 37 34 32 30 30 32 33 33 33 32 30 27 21 16 13 18 20 25 25
49 50 50 51 49 46 44 41 40 39 38 35 34 35 36 38 38 39 40 40 39 40 40 38 35 30 28 27 29 29 29 30 31 31 27 25 20 17 17 20 26 29 25
53 50 47 45 44 43 40 39 38 36 36 36 37 38 39 40 39 40 41 40 40 39 36 32 29 25 26 28 27 27 28 28 28 28 27 25 25 23 21 21 25 25 28
46 44 43 42 40 39 38 37 36 36 37 38 37 37 39 39 39 39 39 39 38 34 30 27 25 26 28 27 28 29 29 29 29 28 27 28 27 24 24 26 30 31 32
44 42 40 39 37 35 34 33 35 36 35 34 34 34 32 33 35 36 37 35 32 29 27 26 26 27 28 30 30 31 31 31 31 30 28 28 28 29 29 29 30 32 36
35 37 36 35 32 31 32 32 31 32 32 31 31 31 32 35 36 35 33 30 28 28 27 28 28 29 30 31 32 33 33 32 32 31 30 30 30 31 33 35 37 38 40
36 35 31 30 30 31 28 28 30 32 29 28 28 30 32 34 34 31 29 27 28 29 30 30 29 29 31 33 34 34 34 34 34 34 34 35 35 36 39 43 45 47 47
30 29 29 28 26 25 25 26 26 23 22 23 25 28 30 30 30 28 28 29 30 30 31 30 30 33 34 35 35 36 36 36 36 36 37 37 39 42 46 49 50 50 48
26 27 25 24 23 24 23 21 21 20 21 24 26 27 28 29 30 31 31 31 32 32 30 31 34 36 36 36 37 38 38 37 38 38 38 41 44 48 51 51 47 44 43
25 24 24 23 23 21 20 20 20 21 22 25 26 28 30 31 31 33 33 33 33 32 32 35 37 36 36 37 38 38 38 38 38 39 41 44 47 51 53 46 43 44 47

GFSMA_500_spd_060.txt.gz
Wind_Speed
20 20 20 20 21 20 21 22 22 23 23 24 26 27 29 30 31 32 32 33 33 34 35 35 35 35 33 32 33 33 33 34 33 32 32 30 29 30 30 30 30 28 27
22 22 23 23 23 23 23 24 24 25 26 26 28 30 31 32 33 34 34 35 36 37 38 38 36 35 35 36 37 36 36 35 35 34 33 31 31 30 31 32 32 31 29
25 25 25 26 25 25 26 26 26 27 28 29 31 32 33 34 36 36 35 37 38 39 40 39 37 37 36 36 36 36 36 35 35 34 35 34 33 32 32 33 33 32 31
27 27 28 29 28 28 28 29 29 28 30 31 33 35 36 37 38 38 38 40 42 42 41 39 37 38 38 37 36 36 36 36 36 36 35 33 34 34 33 33 34 34 33
30 30 31 32 31 30 31 31 31 30 32 33 35 38 39 40 40 39 40 42 43 42 41 39 39 39 38 38 37 37 36 36 35 33 33 35 35 35 35 36 36 37 36
33 33 33 33 34 33 33 33 33 34 35 36 40 42 43 42 41 42 43 44 43 42 42 41 41 40 40 39 37 35 34 30 32 36 37 38 38 38 37 38 39 38 40
36 36 35 35 36 36 36 35 35 36 38 40 46 44 44 43 41 43 45 46 44 42 41 41 41 40 39 37 34 33 32 33 36 37 37 38 39 39 40 41 42 42 41
40 39 37 37 38 38 38 38 40 42 44 45 46 47 45 43 41 43 47 47 45 44 42 41 40 39 37 34 34 33 35 37 37 38 37 38 38 42 45 45 46 46 45
43 42 41 40 40 40 40 41 44 46 47 47 48 49 47 42 42 45 46 45 43 42 43 42 40 37 35 35 34 36 38 36 37 36 38 41 45 46 47 49 52 52 52
45 44 43 43 43 43 43 46 47 47 47 48 48 47 44 43 47 48 45 43 42 42 40 39 37 35 35 35 37 38 38 36 37 37 40 45 47 42 42 39 44 52 54
47 47 46 45 45 45 47 48 48 48 48 47 45 41 43 47 47 48 43 44 44 41 38 37 35 36 37 38 39 38 37 36 37 38 41 44 40 36 44 46 50 51 55
49 48 48 47 47 48 49 48 48 47 46 43 40 42 45 48 46 45 44 44 43 39 36 36 36 37 38 40 40 38 37 36 37 39 38 40 43 44 46 48 49 47 47
52 51 50 49 48 47 47 47 46 47 44 42 42 45 48 48 46 45 45 43 39 35 35 37 37 38 40 40 39 38 37 36 36 36 36 37 43 46 48 52 50 46 42
49 49 49 48 47 46 46 47 44 43 42 45 48 50 48 47 46 46 44 41 37 35 35 38 41 42 42 40 40 38 36 34 34 33 34 36 37 39 43 45 40 38 36
50 50 49 48 47 46 46 44 44 45 46 48 51 49 47 46 46 45 42 39 38 38 40 40 41 43 41 41 38 36 33 31 30 32 33 34 33 32 35 33 29 30 35
50 48 47 48 47 45 45 46 47 49 50 48 46 45 45 45 43 41 39 39 40 41 42 42 43 42 42 40 36 33 30 27 28 29 31 32 30 30 28 24 16 12 19
50 48 47 46 46 45 46 48 49 51 49 45 43 43 42 41 39 38 39 40 42 42 43 43 44 42 41 37 33 31 26 27 27 28 28 30 29 28 28 26 19 15 11
50 49 47 47 47 47 49 49 50 46 43 42 42 40 39 38 39 40 41 41 41 42 43 44 42 40 37 31 29 26 27 27 27 28 28 28 29 27 28 27 24 21 20
55 53 50 49 51 52 48 46 45 42 41 42 39 38 39 39 40 40 39 38 38 39 40 39 37 33 30 26 25 27 28 28 30 30 29 28 28 29 28 27 26 24 25
55 54 52 50 50 48 45 43 42 41 41 39 38 38 38 39 36 34 35 35 37 38 37 33 30 27 26 27 27 29 29 30 32 32 32 31 30 30 30 29 28 27 27
47 47 47 48 49 45 42 41 38 38 37 36 38 37 35 33 33 33 33 33 35 33 31 29 27 26 26 28 29 30 30 31 33 33 34 33 32 32 32 32 32 32 33
40 41 39 40 37 35 35 35 37 36 35 34 33 32 30 28 26 28 30 31 30 29 28 28 28 28 28 29 29 30 31 33 34 35 36 35 34 34 34 35 35 36 38
31 30 31 31 33 33 34 37 34 33 30 30 29 23 23 25 27 29 29 28 28 28 28 29 30 30 30 30 31 33 35 36 36 36 37 37 36 36 36 37 39 40 42
43 40 43 38 36 35 35 33 30 28 27 26 22 21 23 25 26 26 26 25 28 30 31 32 32 32 31 32 34 36 36 36 37 37 38 38 38 37 38 40 43 44 46
41 38 33 32 31 32 30 28 27 25 24 22 21 23 23 24 26 26 28 28 28 30 32 33 33 33 34 36 38 37 36 37 38 39 39 39 40 40 42 44 46 48 50
26 28 32 32 31 28 27 26 25 24 23 22 23 25 25 25 27 29 30 31 31 33 33 33 34 35 37 38 37 37 37 39 39 39 40 41 41 43 45 48 50 52 53

GFSMA_500_spd_063.txt.gz
Wind_Speed
18 18 18 17 17 18 19 20 22 22 23 24 24 25 27 28 30 31 31 33 33 33 33 35 36 37 35 32 32 31 32 32 31 31 30 30 30 29 28 27 27 27 28
22 21 21 20 19 20 21 23 23 24 25 25 26 27 29 30 32 33 34 35 36 35 36 38 39 37 35 33 33 32 33 32 31 31 31 31 30 31 30 30 29 29 29
24 23 22 22 22 23 24 25 25 26 27 26 28 29 30 31 35 36 37 38 37 36 37 40 40 38 35 34 34 34 34 34 34 33 32 30 31 31 30 31 30 31 31
26 24 24 25 25 26 27 28 28 29 29 29 30 32 32 34 38 39 40 40 39 38 39 42 43 39 36 36 36 35 34 35 34 33 31 30 28 30 33 32 30 31 31
28 28 27 28 28 29 29 30 30 31 31 31 32 34 36 37 41 41 42 43 40 39 42 44 42 40 38 38 38 37 36 33 32 31 29 29 33 35 35 35 34 33 32
32 31 31 32 31 32 32 32 32 34 33 34 36 36 40 42 43 43 44 44 41 40 44 45 45 41 41 40 39 38 35 32 31 30 32 35 35 36 35 35 35 35 34
36 35 35 36 36 35 34 34 35 36 36 37 39 41 43 44 43 45 45 44 41 43 46 46 45 43 42 41 40 36 33 32 31 33 36 34 34 34 34 36 37 38 39
40 39 39 39 40 38 37 37 37 38 39 40 42 45 46 44 46 46 41 42 44 46 48 49 46 43 42 41 37 34 34 33 34 36 35 35 36 35 37 41 40 41 42
43 44 43 43 42 41 40 39 41 41 42 42 45 47 48 47 46 43 38 41 46 47 48 47 46 46 44 40 35 35 35 34 35 36 34 35 35 38 41 38 35 38 37
48 47 46 45 44 44 43 42 44 44 45 45 46 47 47 47 45 42 41 45 48 47 47 46 46 44 43 39 36 36 37 36 37 36 35 34 35 38 38 39 39 37 41
53 51 50 49 47 45 45 45 45 45 46 48 47 46 44 44 43 44 46 47 49 47 46 46 45 43 41 38 38 38 38 38 37 36 34 34 33 34 36 37 39 44 46
53 51 49 48 48 48 47 47 46 47 47 46 46 44 46 41 44 46 49 50 48 46 46 45 44 43 38 39 40 40 41 39 37 36 34 33 32 32 34 35 37 41 45
56 54 53 52 52 51 50 49 48 46 46 45 46 46 44 45 48 51 52 49 46 45 43 43 41 41 40 41 43 43 42 39 37 35 33 31 29 29 32 33 30 35 36
50 51 52 53 53 51 49 49 48 47 46 46 46 45 46 48 50 52 51 47 46 45 41 41 39 40 41 43 43 43 41 40 36 34 31 28 27 27 30 31 29 30 24
50 51 51 51 51 51 50 50 47 44 44 45 46 46 49 51 51 48 46 47 45 43 41 40 40 42 43 44 43 43 42 40 36 30 28 27 27 28 28 29 28 27 29
49 50 51 51 51 51 49 48 48 48 46 45 47 47 50 51 48 45 46 44 41 41 42 42 42 43 43 43 43 42 40 37 31 27 25 26 27 28 28 28 29 26 27
50 49 49 49 49 50 49 47 45 46 47 46 49 50 49 46 45 45 42 41 41 43 44 42 41 39 40 42 41 40 36 31 26 25 26 27 28 28 29 29 29 29 26
53 53 52 50 48 49 49 48 46 47 48 49 50 48 47 44 42 41 40 41 42 43 40 36 36 37 38 39 37 32 29 25 23 27 27 28 29 29 30 29 29 29 28
54 54 53 53 53 53 52 51 49 51 51 51 46 45 43 42 39 40 40 41 40 37 36 36 36 36 35 33 29 27 24 25 27 29 30 30 30 30 31 30 29 29 30
50 49 48 50 49 47 48 49 50 50 49 50 45 41 39 38 37 37 38 37 35 32 32 32 32 31 30 28 27 26 27 28 29 30 30 31 31 31 31 31 31 31 31
44 43 44 43 43 44 46 46 46 46 46 44 40 37 35 34 35 34 35 29 28 29 30 30 30 30 28 27 28 29 29 30 29 30 31 32 32 33 33 33 33 33 32
44 42 42 41 43 42 43 44 41 40 37 36 35 34 34 34 31 30 27 26 28 29 29 28 28 27 28 29 30 29 30 30 30 33 34 34 34 34 35 35 36 35 35
50 45 42 41 32 30 32 34 33 33 32 32 33 35 32 29 28 26 26 25 26 26 27 27 28 29 29 29 30 30 31 32 34 35 36 35 35 35 36 37 37 37 37
45 51 51 47 43 43 38 38 36 36 34 34 31 29 29 27 25 26 25 27 27 27 28 29 31 32 31 31 31 31 32 34 36 36 35 36 36 36 37 37 38 38 39
35 33 35 37 38 41 37 37 36 35 31 29 28 28 27 26 26 25 28 28 27 29 30 31 32 35 35 34 33 33 35 36 36 36 37 38 38 38 38 39 40 41 43
34 30 31 29 26 34 29 29 30 33 30 28 28 27 28 27 26 27 28 28 28 29 30 32 32 33 33 34 35 35 36 36 37 38 39 40 39 39 40 42 43 45 47

GFSMA_500_spd_066.txt.gz
Wind_Speed
19 17 16 15 15 15 15 16 16 18 19 20 21 22 22 23 25 26 28 32 33 34 34 32 31 33 35 36 35 32 31 32 32 32 30 30 31 31 29 27 27 27 25
22 20 19 18 18 17 17 18 19 20 20 22 23 23 24 26 27 28 30 34 36 36 36 35 34 33 35 37 37 34 33 34 33 33 32 33 32 31 29 28 26 25 25
25 23 22 21 19 19 20 21 21 22 22 23 25 25 26 28 29 30 32 37 37 38 38 38 35 35 38 38 38 34 34 35 36 35 34 33 31 28 26 26 29 29 28
27 27 25 24 22 22 23 24 24 25 26 26 27 27 28 29 31 33 37 38 39 39 38 39 35 38 40 41 39 35 35 36 37 37 33 30 29 27 28 31 32 31 30
30 29 28 27 26 25 26 27 27 28 28 29 29 30 31 31 34 36 39 39 41 42 39 37 37 40 42 43 38 37 37 37 35 35 33 30 29 30 32 32 32 31 29
34 32 31 30 30 29 29 30 30 31 31 31 32 32 34 34 36 38 40 40 42 44 40 36 38 42 44 43 39 38 38 37 35 33 33 33 31 32 32 32 33 29 30
37 35 34 33 34 33 33 33 34 33 33 34 34 34 35 37 39 40 39 40 42 43 38 39 42 43 45 42 39 40 39 37 33 33 33 34 35 35 34 34 32 31 33
39 38 36 37 38 37 37 38 38 37 36 36 37 38 37 37 40 43 41 38 39 41 40 42 46 47 46 42 39 40 38 36 32 33 34 35 36 35 35 36 34 33 30
51 45 43 43 43 43 43 42 41 42 40 38 40 41 41 41 41 40 39 37 38 39 41 44 48 48 45 42 41 40 38 34 34 35 35 35 35 35 35 36 35 30 29
42 42 45 48 47 48 49 46 45 45 43 43 42 42 43 44 43 41 40 42 41 42 44 47 47 45 44 44 42 40 38 34 36 35 37 38 35 34 34 34 34 31 29
46 50 51 52 53 53 51 51 49 46 45 44 44 44 44 44 42 42 42 40 43 44 47 49 44 44 43 42 41 39 35 36 37 37 39 38 35 34 31 33 31 30 30
51 52 52 53 54 53 51 49 48 48 47 46 47 46 45 44 41 41 42 41 45 46 49 48 44 43 44 41 38 37 36 37 39 37 37 36 34 32 30 30 28 27 28
53 51 53 54 55 56 56 54 51 50 49 48 46 47 45 45 44 41 43 44 46 47 47 45 43 42 43 39 37 37 37 39 38 36 36 35 33 30 28 26 25 25 27
52 53 52 52 52 51 51 50 48 47 47 46 48 48 45 43 44 45 45 46 46 45 44 44 41 41 41 39 39 38 38 37 37 36 36 33 31 27 24 25 25 26 26
53 53 52 52 52 50 49 49 48 48 48 48 47 45 46 45 45 46 46 47 45 43 43 42 41 41 42 41 41 39 36 36 36 35 34 30 27 23 23 23 25 26 26
54 53 52 52 50 48 48 48 48 47 47 47 47 45 44 44 44 46 48 48 43 42 41 39 40 41 42 40 37 34 33 34 34 31 28 26 23 23 23 24 25 26 26
54 52 50 49 48 48 48 47 46 46 47 46 46 45 45 46 46 45 45 44 42 39 39 38 40 40 39 36 34 32 32 30 29 25 23 22 23 24 25 26 26 27 27
49 52 52 53 51 52 52 51 50 49 48 47 45 46 48 48 48 46 43 42 41 39 37 36 35 35 32 31 30 30 29 27 24 22 21 24 25 25 27 27 27 28 28
48 47 47 48 48 49 50 51 50 49 49 45 45 45 46 46 45 46 42 40 37 37 34 35 31 26 26 27 27 27 26 26 25 25 25 27 27 27 28 28 28 29 28
50 50 49 47 46 45 45 44 43 41 41 42 42 43 45 47 47 44 41 37 34 34 33 29 27 26 27 27 26 25 25 26 27 27 28 28 27 26 28 29 30 30 30
50 46 46 45 43 43 44 45 43 43 43 44 44 44 44 42 41 38 34 32 33 31 28 27 27 25 26 26 26 27 28 29 28 28 28 26 28 29 31 31 31 31 31
46 45 44 46 46 44 44 43 43 42 44 43 43 42 39 36 32 31 30 32 31 28 26 26 25 25 26 26 27 28 30 30 29 31 30 29 31 31 31 31 31 31 32
43 45 46 45 47 46 47 45 40 33 32 33 34 33 31 29 27 30 33 29 28 28 26 26 25 25 26 28 28 31 31 31 30 31 32 33 34 33 33 32 32 33 34
45 48 47 44 44 45 43 46 45 47 41 37 36 31 30 30 31 30 28 28 28 27 27 25 27 26 26 28 28 30 30 31 32 33 34 35 35 34 34 35 35 36 36
41 40 40 41 41 36 32 33 38 37 40 45 34 31 29 29 30 28 28 28 29 27 26 26 27 28 28 29 30 30 29 30 32 33 34 35 36 36 37 38 38 37 37
40 40 41 43 39 34 31 32 32 34 28 27 27 27 30 29 29 30 29 28 28 27 26 27 29 31 31 32 33 32 33 33 35 36 36 37 37 38 38 38 38 39 41

GFSMA_500_spd_069.txt.gz
Wind_Speed
20 19 18 17 17 17 17 16 15 16 16 16 16 18 18 19 20 22 24 24 27 30 31 32 32 32 32 31 32 35 36 35 33 33 33 33 33 32 30 29 27 24 23
24 21 19 19 19 19 19 18 17 18 18 19 19 20 22 22 23 24 24 25 28 31 33 33 33 33 31 29 33 36 38 36 33 33 34 34 34 32 28 27 25 24 24
27 23 22 22 21 22 21 20 20 20 20 21 22 22 23 23 25 26 27 28 31 33 34 35 35 34 33 30 33 36 38 35 34 33 34 34 33 29 28 26 25 27 27
29 27 26 25 24 24 24 23 22 23 22 23 24 24 25 25 26 28 30 30 32 32 34 35 37 37 34 33 35 37 39 36 35 35 36 35 32 27 28 27 28 28 28
30 30 29 28 27 25 26 26 26 26 25 25 27 26 28 29 29 30 31 32 34 34 35 33 33 34 32 36 37 39 38 36 36 37 36 35 30 29 28 28 29 28 28
32 33 32 31 30 29 29 30 29 28 29 29 30 30 31 31 32 33 34 35 36 38 36 33 35 34 33 37 39 40 37 35 37 37 36 33 31 32 30 29 29 28 28
35 33 33 35 35 34 33 33 33 33 32 34 34 34 34 34 34 37 37 36 37 38 36 35 35 35 37 39 42 41 37 36 36 36 35 30 31 33 33 32 31 31 30
36 38 39 37 38 37 36 37 37 38 38 39 39 39 37 36 36 37 39 39 40 38 36 36 36 37 38 39 41 39 37 36 36 35 32 30 31 33 34 34 33 31 31
37 35 33 37 49 47 41 45 43 42 43 44 46 46 46 42 40 38 38 39 38 36 37 35 36 38 40 39 39 38 38 36 35 32 30 31 32 32 34 34 33 32 32
40 38 38 38 38 39 45 47 48 47 48 50 48 48 45 44 44 40 41 40 39 37 36 37 38 39 40 39 39 37 37 37 34 31 31 31 33 33 34 34 33 34 33
44 42 43 43 42 43 46 51 51 52 52 51 50 45 45 47 45 44 42 41 41 39 39 38 41 41 40 39 40 38 38 36 34 33 32 35 35 33 33 33 33 31 30
46 45 46 48 49 48 49 48 49 50 52 52 52 52 52 48 43 45 42 43 41 40 40 41 42 43 40 39 38 38 38 35 35 35 34 35 35 32 32 33 32 30 26
49 49 52 52 53 50 53 52 53 53 51 49 49 47 47 44 43 43 42 40 40 43 42 42 42 41 40 38 37 38 37 37 36 35 34 33 32 32 32 31 30 26 23
55 57 57 54 53 54 52 52 54 54 51 50 47 45 45 44 43 42 42 42 41 42 43 42 42 40 39 39 37 38 37 37 35 32 31 31 32 32 30 28 25 22 21
53 53 54 52 54 53 53 53 53 52 52 51 49 46 44 44 43 42 42 40 42 41 42 42 41 39 38 38 36 37 36 32 31 29 29 30 30 28 24 22 20 21 21
56 55 54 52 56 52 54 53 52 51 49 47 46 45 45 44 43 42 42 43 42 41 42 42 40 39 37 36 36 35 35 28 26 26 27 26 25 22 20 20 21 21 21
60 58 56 55 55 58 60 53 51 50 48 48 48 46 44 44 42 41 42 43 42 43 43 43 41 38 36 35 36 32 27 23 24 24 24 23 22 19 20 22 23 23 23
42 48 50 58 58 57 55 52 52 51 50 49 49 49 46 45 44 44 45 45 44 43 42 42 39 35 33 32 33 28 25 24 23 22 23 23 22 23 24 25 25 25 24
44 45 44 47 48 47 48 46 44 45 42 42 43 44 43 42 42 43 42 45 46 44 43 39 34 32 31 29 28 27 26 24 23 23 24 25 25 27 26 26 26 25 25
45 46 47 47 47 49 50 47 43 43 43 43 43 44 43 43 44 45 45 46 47 43 38 34 31 31 28 27 27 27 26 24 24 26 26 26 28 28 27 27 27 27 28
46 48 49 48 48 46 48 47 46 45 43 43 44 46 45 46 46 46 46 44 41 35 32 31 29 27 28 25 26 25 25 24 24 27 27 27 29 29 30 29 29 29 30
46 45 46 46 46 47 45 45 46 47 48 44 42 40 42 40 40 37 36 34 36 31 27 29 27 27 27 26 25 25 24 24 26 28 28 29 31 31 31 32 33 33 32
43 41 42 43 44 46 48 48 47 47 44 45 44 39 36 33 31 33 30 30 28 29 28 27 28 26 26 26 24 26 26 25 25 27 27 30 31 32 32 33 33 34 34
41 41 41 43 43 45 46 48 45 43 42 42 45 46 46 39 37 32 30 29 28 27 27 28 26 25 27 27 25 26 27 28 27 27 27 29 30 32 33 33 34 35 36
42 43 44 46 47 46 44 40 41 39 39 35 38 44 47 40 40 30 29 28 28 29 28 28 26 26 28 26 26 28 29 29 30 30 31 32 33 34 34 35 36 37 38
41 41 40 40 42 41 41 40 42 40 37 37 35 37 34 32 31 29 27 26 28 29 31 28 28 28 28 27 27 29 30 31 32 33 34 35 36 36 36 36 37 37 36

GFSMA_500_spd_072.txt.gz
Wind_Speed
23 22 21 19 18 18 18 17 17 17 16 16 16 17 17 18 18 20 22 24 25 27 27 28 29 29 30 30 30 30 30 32 35 35 33 31 31 32 32 32 28 25 22
25 24 23 22 21 21 20 20 19 19 18 19 19 19 20 21 21 22 24 26 27 29 30 30 31 30 30 29 30 29 32 33 36 36 34 32 32 33 32 30 26 24 22
27 27 26 25 25 23 22 21 21 20 21 21 21 21 22 23 24 25 27 27 29 31 32 32 33 33 30 29 28 29 31 34 36 35 33 32 33 33 32 28 26 24 23
29 28 28 28 27 26 25 24 24 23 23 24 23 22 23 24 25 27 30 30 31 33 34 35 34 35 34 32 29 31 34 36 37 36 34 33 34 33 31 27 26 24 25
31 30 29 30 30 30 28 28 27 28 27 27 26 25 26 27 29 29 31 32 33 35 36 35 34 33 32 32 30 33 35 37 37 35 35 35 35 34 30 28 26 25 26
31 32 31 31 31 31 30 30 31 31 30 30 29 30 31 31 33 33 34 35 35 36 37 37 37 34 33 31 31 33 34 37 36 35 35 36 35 33 29 28 28 26 26
31 33 35 35 34 33 33 33 33 34 33 34 32 32 34 35 36 38 38 41 40 40 39 39 39 36 36 34 33 35 35 37 35 35 36 35 33 28 31 30 29 28 28
36 35 33 34 36 35 36 37 37 37 37 37 39 37 35 37 40 42 42 40 43 43 41 40 39 38 38 37 36 36 36 36 35 35 35 35 33 29 30 31 31 32 29
38 38 40 38 36 35 35 34 34 43 46 44 46 47 45 44 47 45 44 43 40 42 42 41 39 38 38 38 38 37 37 36 35 34 35 33 32 31 29 30 32 32 30
40 41 41 40 41 39 37 37 39 40 43 45 50 50 53 53 51 48 45 45 46 44 42 39 39 38 38 38 38 37 35 36 35 35 35 33 32 31 32 33 32 30 28
39 43 43 41 41 41 40 43 46 44 46 47 48 46 47 50 52 54 52 47 46 45 45 39 38 37 39 38 38 37 37 36 34 35 34 33 34 35 33 32 31 30 29
43 43 46 44 46 45 42 44 47 49 52 52 52 50 48 49 48 49 49 45 42 42 40 38 37 40 39 38 37 38 38 38 36 35 36 36 35 33 32 31 31 31 30
45 47 46 46 47 49 47 51 54 56 55 53 50 49 51 50 48 45 45 43 43 42 39 39 41 40 39 39 37 38 39 36 37 34 32 33 33 30 27 28 29 29 28
50 53 49 50 51 53 55 58 57 56 55 54 52 50 51 52 51 48 47 46 43 43 41 40 41 39 38 38 38 38 38 38 37 35 34 31 26 25 26 28 27 26 23
54 54 53 54 57 53 54 55 56 54 52 52 54 53 53 52 51 48 46 46 44 42 41 40 41 40 40 41 40 40 40 40 35 33 33 26 23 25 25 23 22 20 19
53 51 60 61 61 59 57 56 55 53 56 59 56 54 55 52 50 48 46 45 44 43 42 41 41 42 43 42 42 40 40 37 32 31 26 23 23 24 22 21 19 18 20
64 59 58 59 60 62 64 61 61 60 59 58 57 59 56 53 52 51 50 49 46 46 47 44 44 44 44 43 43 41 37 34 30 26 23 22 23 22 21 22 21 21 22
51 50 51 46 44 46 47 49 50 44 51 58 59 56 53 53 52 50 49 48 45 45 46 46 45 46 45 45 42 38 35 31 28 26 24 23 22 22 22 23 25 25 25
43 45 46 43 43 45 48 49 48 48 49 48 45 44 44 43 45 45 45 44 45 46 47 48 47 45 45 42 39 34 32 31 29 27 26 24 23 23 24 25 25 25 25
42 41 43 44 46 46 48 49 48 47 47 47 46 45 45 43 44 43 44 47 48 51 51 48 46 43 39 37 33 32 30 30 29 27 25 25 25 24 26 26 24 26 26
47 47 48 47 48 48 48 49 47 47 46 47 46 45 45 45 46 47 47 48 49 48 46 42 39 37 32 32 31 30 31 28 27 26 25 26 26 26 27 28 27 29 30
46 48 49 49 49 48 48 48 47 48 48 48 49 50 51 51 50 43 37 43 43 40 35 32 36 36 30 30 29 30 29 27 25 25 25 27 26 26 27 27 27 30 32
45 47 47 49 49 49 48 48 48 47 47 49 51 50 48 49 44 44 42 41 35 35 36 33 31 29 30 27 29 31 27 26 25 25 26 26 25 25 26 27 28 31 32
36 38 42 44 46 46 46 47 47 46 47 48 46 46 46 44 43 44 49 43 42 35 31 30 31 25 28 29 31 29 28 26 26 26 27 28 27 28 28 29 30 32 33
38 39 40 41 42 43 45 46 47 48 48 45 43 41 43 41 39 42 42 43 42 41 32 25 24 28 26 30 30 28 28 28 28 28 29 29 29 31 31 32 33 35 35
40 41 40 38 39 40 41 42 41 40 39 40 42 40 41 39 38 38 38 36 38 35 28 25 30 27 28 30 30 30 29 28 28 29 31 31 32 32 33 34 35 35 36

GFSMA_500_spd_075.txt.gz
Wind_Speed
23 23 23 21 20 21 20 19 19 18 18 18 17 18 19 19 19 20 20 21 22 24 25 26 28 30 31 32 32 31 29 27 29 31 32 32 31 31 31 31 31 31 26
25 25 25 24 22 23 23 22 21 21 20 20 20 20 21 21 21 22 22 23 24 26 28 29 31 32 32 32 33 32 32 29 30 32 32 33 32 31 32 32 32 30 26
25 26 26 26 25 25 26 25 25 24 23 23 22 22 22 22 23 24 26 27 27 29 30 31 33 35 35 35 34 31 32 31 32 32 32 33 33 33 32 32 31 28 25
26 27 28 28 28 29 29 28 28 26 24 24 25 24 25 24 25 26 28 30 31 32 33 35 36 37 37 37 36 35 34 34 35 34 33 33 33 33 32 32 31 24 23
27 26 28 30 30 31 32 30 29 28 28 27 28 28 28 28 28 29 29 31 33 35 36 39 39 40 38 37 36 36 35 35 36 35 34 34 36 36 34 33 30 25 23
27 27 29 31 31 31 32 32 31 31 31 31 30 31 32 32 32 33 31 32 36 37 40 42 42 43 42 39 36 36 35 36 36 37 35 35 36 36 35 32 28 27 26
32 30 30 30 32 33 33 34 34 34 34 35 34 34 33 33 35 36 36 37 40 45 45 43 42 43 44 41 39 38 37 37 37 37 37 36 35 35 30 27 28 28 27
35 35 33 34 35 32 32 37 36 37 36 37 40 39 37 36 39 41 43 45 48 47 46 46 48 46 44 42 41 39 39 38 37 37 36 37 36 34 32 27 29 30 30
39 39 39 39 38 36 38 39 38 36 36 35 34 36 39 39 44 45 45 44 47 48 46 48 48 45 44 42 42 37 39 38 36 36 37 37 35 32 31 30 29 30 31
44 43 40 42 44 43 43 43 40 39 39 38 38 41 44 46 44 44 44 44 45 45 46 47 45 42 42 41 40 38 38 38 36 35 37 38 36 34 32 32 31 30 29
44 48 47 47 43 43 43 43 43 43 40 42 43 45 46 49 50 53 52 47 46 46 45 42 41 40 39 38 42 37 36 39 36 36 37 37 37 35 33 33 31 31 27
38 39 43 43 39 39 42 43 43 43 44 46 46 47 50 51 54 56 53 48 48 47 46 44 42 41 40 38 40 39 37 37 36 36 38 39 39 35 35 33 29 26 25
43 48 42 40 42 43 45 43 44 48 49 53 57 57 56 57 54 52 50 48 48 50 48 46 44 43 42 41 40 38 37 37 38 39 37 39 39 36 35 31 25 23 24
47 45 38 51 43 45 46 52 48 48 48 51 54 57 55 54 53 53 51 51 49 50 48 46 45 42 42 42 42 40 39 39 40 39 40 38 36 35 34 28 23 23 24
52 55 56 57 55 56 56 58 55 56 54 52 54 55 55 54 54 53 53 55 53 51 49 47 45 44 44 42 42 41 42 43 40 40 40 37 35 34 28 26 24 22 20
51 46 53 58 55 57 58 60 60 59 58 61 60 60 59 58 59 58 58 55 55 55 52 50 48 47 46 45 45 46 43 44 40 40 38 36 34 29 26 26 22 20 18
47 45 51 52 54 56 60 61 64 65 63 61 59 55 56 59 57 54 58 57 55 55 52 51 50 49 46 47 47 48 46 44 41 39 36 34 29 27 25 26 22 20 18
50 49 50 52 53 54 53 49 52 54 48 47 46 47 47 47 46 45 45 47 48 47 48 47 47 45 45 47 47 47 45 42 38 36 34 30 28 27 27 25 23 22 21
35 39 42 46 48 47 46 44 43 43 46 47 46 46 46 45 47 47 44 45 45 46 45 47 47 48 48 48 49 49 42 37 35 34 30 29 29 27 27 25 24 24 22
41 41 42 43 45 45 45 45 46 47 47 47 48 49 47 46 45 45 45 45 47 48 48 49 49 50 49 47 44 37 35 34 32 29 30 31 28 26 27 26 25 25 23
44 45 47 47 48 48 48 49 49 49 48 47 48 47 47 46 46 47 47 48 48 49 47 45 42 42 42 42 39 35 32 30 31 29 30 28 27 26 25 27 26 26 25
44 43 41 44 48 50 51 50 50 48 47 47 46 46 45 45 46 47 49 49 48 45 41 44 42 39 35 33 30 33 32 31 28 29 29 28 26 26 25 26 25 25 25
39 40 40 40 40 41 43 44 44 44 44 44 45 46 46 46 45 47 46 45 45 44 44 43 40 36 34 35 34 26 28 28 29 29 29 28 27 25 24 24 24 24 25
41 42 43 43 41 39 37 38 39 40 42 44 45 46 48 49 48 46 43 42 42 43 41 45 44 38 35 35 32 31 30 29 29 29 30 28 26 25 25 26 26 27 28
44 46 45 44 43 42 40 39 40 41 42 44 45 44 44 43 43 43 40 43 43 38 41 42 40 37 44 34 34 30 25 27 29 29 29 28 26 26 27 28 29 30 30
47 48 48 46 44 44 42 40 40 41 41 41 40 40 41 40 38 38 37 36 37 36 36 37 37 37 32 27 25 25 24 28 29 31 30 29 29 29 30 31 31 31 32

GFSMA_500_spd_078.txt.gz
Wind_Speed
24 25 25 24 23 22 21 21 20 19 18 18 17 18 19 20 21 21 21 20 19 20 22 24 26 28 29 30 33 34 35 33 32 30 30 29 29 28 28 30 31 32 31
26 26 26 25 25 24 24 24 22 22 21 21 20 21 22 23 23 24 23 23 23 23 25 26 26 29 31 33 36 37 37 34 33 32 31 30 28 27 29 30 33 34 32
26 26 26 26 26 26 26 26 25 25 24 23 23 23 24 25 25 25 25 26 26 27 27 28 28 30 33 36 38 39 38 35 33 33 32 31 29 28 28 29 31 33 32
28 27 26 27 26 27 29 28 28 28 27 27 26 25 26 27 27 27 28 29 30 31 31 32 32 32 37 38 39 40 39 39 34 35 33 34 32 26 30 29 30 33 31
27 25 26 28 28 29 30 29 30 31 30 29 29 28 29 30 29 30 30 31 32 33 33 34 35 39 39 38 39 40 40 40 36 34 35 35 33 30 32 31 32 32 29
28 26 25 27 29 30 31 32 32 32 33 32 31 32 33 32 33 35 35 34 34 35 37 37 41 46 46 42 43 43 41 39 39 34 33 36 33 33 31 31 32 32 27
28 27 28 28 29 30 32 32 33 33 35 35 36 36 36 37 37 37 37 37 37 40 45 48 46 46 45 44 45 44 41 39 37 38 34 35 33 32 33 33 33 29 26
33 33 31 32 33 34 35 36 36 37 38 39 40 39 36 37 40 41 44 43 46 45 45 48 48 44 43 44 45 45 43 41 40 38 37 36 34 34 32 34 33 30 27
37 37 36 37 39 38 38 40 39 40 40 40 40 40 40 38 35 34 36 38 41 42 44 46 47 48 45 43 42 41 41 41 40 40 40 35 35 34 33 35 33 30 30
36 37 39 41 41 43 41 40 39 40 41 42 43 45 46 45 44 40 41 43 42 45 49 49 46 44 43 41 40 39 39 40 40 36 33 34 36 33 33 34 34 31 31
34 39 38 38 39 38 35 35 42 42 41 43 44 46 49 50 48 49 47 45 47 49 51 48 43 43 41 40 41 40 40 41 40 35 33 36 37 35 34 34 34 32 33
35 32 26 30 37 42 35 36 34 34 37 36 40 42 45 50 51 54 54 56 55 51 50 47 46 44 41 41 40 40 40 40 39 39 36 36 36 36 36 35 33 32 32
37 37 34 33 39 39 38 41 35 38 44 45 43 45 46 48 48 50 52 52 51 49 49 46 45 43 42 41 40 40 41 40 39 39 37 37 39 37 35 35 33 33 29
38 39 44 52 48 51 42 42 46 46 43 43 48 50 51 51 53 55 53 53 52 51 49 49 51 50 46 44 43 42 41 40 40 40 38 40 39 36 35 34 33 31 25
45 44 44 46 49 49 53 50 52 54 54 56 58 57 56 55 54 56 58 58 58 55 54 52 51 50 49 47 45 44 43 43 43 42 42 42 40 38 36 34 33 27 23
41 44 45 47 48 48 50 52 53 52 53 55 54 54 55 57 58 58 59 55 52 52 53 52 49 48 49 50 47 44 44 44 44 45 44 42 38 35 34 32 28 25 25
43 45 48 49 49 49 50 50 52 52 55 53 56 58 53 52 52 52 50 47 46 45 44 46 46 47 47 47 46 47 45 44 44 45 43 41 38 33 32 29 25 25 24
42 44 45 45 46 47 49 51 53 52 51 50 48 48 48 49 49 46 45 44 45 45 44 45 44 45 45 47 47 46 45 42 40 37 41 40 31 30 31 27 26 24 23
37 36 35 36 37 38 39 40 41 41 42 43 44 45 46 46 47 47 48 47 45 45 44 44 44 45 46 47 47 44 43 43 42 44 36 28 28 30 27 27 26 25 24
38 39 39 41 41 42 44 44 45 46 47 48 49 49 49 48 47 46 47 47 46 45 44 44 43 44 44 44 42 39 38 38 36 38 32 29 29 26 27 28 26 26 26
42 43 44 45 45 46 47 47 45 46 48 50 50 49 48 47 45 44 44 44 43 43 43 43 43 43 40 39 36 41 37 34 34 32 31 28 27 28 26 27 26 26 26
44 44 44 45 47 46 44 41 41 42 43 44 44 44 43 43 42 41 41 42 43 42 42 43 42 41 41 41 38 38 32 30 31 29 29 27 27 26 26 25 26 26 26
45 43 42 42 43 42 42 42 42 43 41 40 40 40 41 41 41 42 42 44 45 46 44 42 37 37 39 42 38 42 30 31 30 24 21 25 24 25 25 26 26 25 24
44 43 43 44 47 46 45 45 44 44 44 43 41 40 40 40 42 43 43 44 41 39 39 37 38 40 38 39 37 35 30 31 25 25 28 25 24 25 25 25 25 24 23
43 43 43 45 46 47 48 47 47 46 45 45 44 42 41 42 41 40 40 39 37 36 35 33 37 31 34 35 39 34 32 33 28 30 24 23 25 26 25 25 25 24 25
46 47 47 49 49 49 50 49 48 47 46 44 45 44 42 41 39 36 35 36 37 35 32 33 30 34 33 35 34 34 36 31 28 25 23 24 26 27 26 28 30 30 28

GFSMA_500_spd_081.txt.gz
Wind_Speed
29 28 26 26 26 25 24 23 22 21 21 20 20 19 19 20 20 20 21 20 21 21 22 22 24 24 25 25 26 29 31 32 33 35 34 32 31 29 29 27 26 24 26
34 31 29 29 28 27 27 26 25 25 24 23 22 22 22 23 23 23 23 23 23 23 23 25 25 27 27 28 28 31 32 34 35 34 34 33 32 30 29 28 28 25 27
34 32 31 30 29 29 29 28 27 28 27 26 26 25 25 25 25 26 26 26 26 27 27 28 29 28 28 30 33 34 37 39 38 36 35 34 32 32 32 31 31 31 29
37 34 33 33 31 30 30 30 30 30 30 29 28 28 28 28 28 29 29 28 29 31 30 31 33 31 30 33 38 43 40 38 37 37 36 35 34 30 32 31 30 34 31
39 38 37 35 33 33 32 30 31 30 30 31 31 31 31 32 32 33 32 32 33 33 33 34 35 35 36 41 39 39 39 39 40 38 37 36 36 36 31 30 29 32 30
40 40 38 37 35 35 32 31 31 30 31 33 34 33 34 35 36 36 36 36 37 36 37 37 38 39 42 42 42 37 41 41 39 38 36 37 37 36 31 31 26 31 31
43 39 36 36 35 34 34 32 32 32 34 36 36 36 36 37 39 39 40 40 42 40 39 42 40 41 39 42 44 47 44 38 37 37 36 36 38 39 37 30 26 36 32
35 34 35 34 34 36 35 32 34 34 35 35 36 35 36 38 41 42 42 43 43 44 39 38 39 40 41 45 46 42 41 39 38 37 38 36 35 38 39 29 30 32 31
31 39 36 37 35 36 34 37 38 38 39 38 38 36 36 37 39 42 44 43 42 40 39 42 43 46 47 47 47 42 41 40 38 37 37 36 34 30 28 33 32 32 29
37 40 40 41 39 38 37 30 36 35 30 33 39 38 40 42 43 41 44 45 45 44 45 45 46 48 53 49 46 42 39 37 37 36 37 38 36 35 32 32 31 32 31
39 44 39 33 32 38 35 35 43 42 39 37 38 37 35 38 40 42 43 46 47 49 50 49 50 50 48 46 45 43 40 38 35 35 36 38 38 35 34 32 32 32 31
34 33 31 32 29 39 42 39 46 42 36 34 32 31 33 39 42 43 45 44 43 44 45 47 47 45 45 45 44 42 42 42 38 37 37 36 38 37 35 35 33 32 32
30 30 31 32 35 39 34 38 34 34 34 36 41 33 37 41 41 43 45 45 46 49 48 49 50 49 50 49 47 47 44 42 41 38 37 37 37 38 37 36 31 29 32
39 33 37 36 34 42 47 42 47 48 43 40 40 40 43 46 48 50 53 55 55 54 53 53 55 55 53 52 51 49 47 45 42 40 40 39 38 38 39 37 38 35 32
37 36 34 38 40 39 45 42 44 44 43 44 48 47 46 47 49 50 51 52 55 54 55 51 51 53 54 51 50 50 48 45 45 43 42 41 41 40 42 40 38 33 31
38 36 41 42 40 40 36 39 43 45 46 46 45 46 49 50 51 51 51 50 51 51 51 50 51 48 47 47 48 47 46 45 43 42 41 41 39 38 40 35 35 31 30
34 36 38 39 40 40 41 44 46 45 45 47 48 49 50 50 51 51 49 49 49 49 48 46 44 45 45 45 45 45 45 44 42 41 38 35 37 35 35 37 32 30 29
38 39 40 40 41 42 40 36 33 33 35 38 39 41 42 42 43 44 45 45 45 46 46 44 44 44 44 45 45 45 46 45 41 37 36 34 33 32 36 38 28 28 29
40 40 39 39 38 36 35 35 36 37 40 41 42 44 46 47 49 50 50 50 49 49 47 46 45 44 44 43 43 43 42 41 37 34 37 35 32 29 28 28 25 28 27
44 43 43 42 40 39 39 40 42 42 42 43 45 47 48 48 50 51 51 50 49 48 46 44 42 41 41 41 39 40 40 39 38 35 36 35 33 33 32 25 27 27 23
46 44 45 45 45 43 43 43 43 43 43 44 44 41 41 41 42 42 43 43 43 43 42 41 41 41 40 39 40 40 38 37 36 36 35 32 30 34 28 23 27 26 23
48 47 47 46 45 46 45 44 42 41 41 40 40 40 41 40 40 41 41 40 40 40 41 41 42 41 42 40 39 36 35 36 40 38 31 29 31 26 27 26 20 20 25
53 51 51 48 47 45 45 43 40 39 40 41 42 43 43 43 44 43 41 40 40 40 40 40 40 38 36 34 34 37 36 36 39 34 28 30 33 31 26 21 19 23 25
50 50 49 49 47 46 46 44 43 43 45 45 46 47 45 44 45 46 42 40 40 39 38 38 37 36 34 32 32 30 29 33 34 30 29 30 23 22 24 21 23 25 23
49 50 48 48 46 46 45 45 45 45 44 45 45 46 45 45 46 45 42 40 39 38 36 35 35 34 32 31 26 28 27 34 35 34 30 30 26 26 24 23 25 25 23
48 49 49 48 47 47 47 47 47 46 46 47 47 46 47 46 45 44 41 38 38 36 33 33 29 28 27 26 27 26 26 23 31 30 27 25 28 27 24 24 26 27 27

GFSMA_500_spd_084.txt.gz
Wind_Speed
36 35 33 31 28 28 28 27 26 25 24 24 23 22 22 21 22 22 22 23 23 23 23 23 24 24 25 27 27 28 28 30 34 39 37 35 35 33 31 30 30 28 28
39 38 34 32 31 31 31 30 30 29 28 27 26 25 25 24 24 25 25 25 25 26 26 26 27 27 29 31 29 29 31 35 38 35 34 35 36 35 33 32 32 30 29
43 39 35 37 36 34 34 33 33 31 31 30 29 29 28 28 27 28 27 27 27 29 29 29 29 30 30 31 34 33 35 35 38 33 35 36 34 33 34 32 32 32 29
45 39 42 39 37 37 36 36 35 35 34 33 32 32 32 31 30 31 31 31 31 32 31 32 32 32 32 33 33 35 37 39 38 37 39 34 34 34 33 33 34 32 30
45 45 45 41 39 39 38 37 37 37 35 34 34 34 35 36 34 34 33 34 36 35 35 35 36 36 36 36 36 38 38 41 43 42 38 35 34 33 34 35 32 31 30
50 45 45 42 40 39 39 38 39 39 36 35 35 35 37 38 36 35 36 37 39 37 38 39 41 39 39 40 42 38 36 41 45 41 37 37 36 35 35 35 35 35 32
43 43 40 39 40 41 40 40 42 40 39 37 36 37 39 39 37 37 38 39 40 40 41 42 41 41 43 38 37 40 43 44 46 39 38 37 35 35 34 34 35 36 28
47 38 34 42 47 44 43 41 41 41 41 38 38 38 41 39 38 37 38 40 42 41 40 42 41 40 41 44 45 45 46 47 45 40 39 37 35 35 35 35 35 30 30
40 34 32 32 39 42 46 46 43 41 41 42 43 42 41 41 37 38 40 42 43 43 42 43 44 43 45 49 48 50 50 46 43 41 40 37 36 35 36 36 36 34 32
43 40 41 38 35 47 42 41 38 35 32 30 29 33 37 42 43 42 41 44 46 45 45 44 48 47 47 50 51 48 49 46 44 42 40 39 38 37 37 38 37 35 34
47 45 46 42 45 39 40 38 40 41 36 38 37 34 35 37 38 39 38 37 44 44 44 41 41 45 46 46 48 49 48 46 45 45 42 42 42 41 39 38 38 36 34
54 48 51 48 45 38 41 40 34 36 37 42 46 47 40 38 36 36 36 38 38 38 39 40 43 44 47 50 50 51 51 50 48 49 48 47 45 43 41 40 38 38 36
37 46 42 49 47 37 39 42 36 36 42 43 43 45 44 38 39 38 34 32 35 41 46 48 51 51 52 54 54 53 53 52 52 51 50 49 48 46 42 41 39 38 36
22 28 27 31 32 30 36 38 35 35 43 41 43 40 38 37 38 41 42 43 40 42 46 49 51 54 53 52 50 50 51 51 51 52 52 50 50 48 45 44 42 39 36
28 26 28 26 28 38 42 44 42 43 43 43 42 35 37 38 38 40 40 43 45 45 45 48 49 51 52 53 53 52 51 52 52 51 51 48 47 48 46 47 41 42 38
34 34 36 38 37 39 43 38 42 37 34 34 36 37 39 38 36 36 37 38 40 41 41 42 43 43 45 47 48 49 47 48 48 47 46 44 45 40 39 42 40 39 40
40 40 38 39 40 41 42 41 37 36 38 39 42 43 36 35 35 35 36 38 40 42 43 44 45 47 48 48 48 47 47 47 47 46 45 44 45 40 38 38 36 37 37
40 40 40 39 39 39 40 39 40 40 39 36 37 35 34 37 38 38 40 42 45 47 49 49 50 50 51 50 50 48 47 47 46 45 44 41 35 35 32 32 32 34 36
38 40 39 40 41 41 40 40 41 40 40 41 38 37 38 39 39 39 41 42 42 42 43 45 45 47 46 46 46 46 44 43 43 41 41 42 41 38 39 36 34 33 35
42 42 43 42 42 41 42 43 42 39 39 39 39 41 42 41 42 40 42 42 38 37 38 40 41 42 43 44 44 44 44 42 41 41 42 41 38 37 33 34 37 37 33
46 45 45 46 46 47 47 45 43 42 41 41 42 42 42 41 38 41 42 40 40 42 43 42 41 41 42 43 43 43 43 44 43 43 38 38 36 36 37 32 35 35 31
52 53 51 51 50 48 47 47 48 48 45 45 46 42 42 40 40 43 44 44 45 46 45 42 41 42 43 42 42 43 41 40 39 38 39 37 35 39 37 33 34 32 28
59 57 55 55 54 53 51 51 53 51 49 47 47 46 43 41 41 44 46 46 47 46 45 43 41 40 40 40 41 40 38 37 35 35 34 33 32 41 33 31 32 26 25
58 59 61 60 59 58 57 57 55 53 50 48 48 45 43 42 43 43 44 46 46 46 45 44 40 39 38 37 37 36 34 35 33 30 30 28 29 30 29 31 33 26 25
56 53 53 54 53 53 53 53 52 51 49 47 47 45 44 43 43 45 45 45 44 45 44 43 39 38 37 37 37 33 33 33 31 30 28 23 28 34 30 24 22 24 26
56 56 53 51 51 51 52 52 51 50 49 48 47 46 45 46 46 43 44 45 44 45 45 42 38 36 36 35 32 28 29 28 28 27 26 21 23 23 22 20 23 25 24

GFSMA_500_spd_087.txt.gz
Wind_Speed
38 37 37 35 34 33 31 31 28 27 26 26 25 23 23 23 23 23 23 23 24 25 24 24 24 25 26 27 28 28 28 29 30 33 34 37 33 34 36 32 30 29 28
41 40 39 38 36 36 33 32 28 32 29 28 27 27 27 26 27 27 26 26 27 27 27 26 27 28 30 31 31 30 29 30 30 33 34 34 36 38 35 33 31 30 29
44 44 42 41 41 38 35 31 35 35 32 31 30 30 30 30 30 30 29 30 30 29 29 29 29 30 30 32 35 34 33 34 36 36 35 38 40 38 33 34 33 32 29
48 47 46 45 43 41 35 39 42 38 35 33 33 33 33 34 33 33 33 33 33 32 32 32 33 33 33 34 36 38 37 38 39 39 38 43 45 38 35 33 31 32 32
51 50 50 48 46 43 39 43 42 40 38 36 36 37 36 37 36 36 37 36 36 36 36 36 35 36 36 37 37 39 40 41 40 39 40 44 42 40 36 35 33 34 32
53 53 52 52 49 46 46 43 45 42 39 39 38 39 38 39 39 38 38 38 39 39 40 40 38 38 38 39 39 39 39 37 39 43 45 45 42 36 36 36 35 33 33
57 55 60 58 53 51 49 43 40 41 40 41 40 40 42 41 41 40 40 39 40 40 42 42 40 39 39 39 39 38 38 40 43 44 45 45 42 39 36 36 35 34 34
55 61 57 54 55 52 39 41 41 44 43 42 43 43 42 42 42 44 41 42 43 42 44 43 41 39 40 41 40 41 42 43 43 44 44 42 42 41 39 38 38 36 35
46 56 59 56 54 45 38 37 40 45 43 44 42 42 42 42 46 45 44 44 46 45 45 43 42 42 43 42 44 43 41 42 42 43 44 44 43 43 43 40 38 39 38
47 39 56 56 54 34 27 33 40 38 41 42 43 40 37 36 42 44 44 45 47 48 47 43 40 40 43 42 42 43 43 44 44 45 44 46 46 46 45 43 42 43 42
49 45 44 55 46 42 35 35 43 40 40 49 39 42 43 42 39 38 36 37 39 42 41 42 42 43 42 43 44 44 47 48 51 51 53 52 52 49 48 48 47 45 44
48 53 55 52 45 46 39 49 48 50 50 40 40 43 42 41 42 43 37 38 38 40 41 41 37 38 40 42 44 46 48 51 53 54 54 54 55 52 51 50 48 48 46
51 57 61 59 60 50 46 31 45 43 46 42 36 32 42 40 44 47 49 45 40 33 33 33 35 40 41 43 44 47 49 51 51 52 52 50 51 50 50 49 48 47 46
38 30 36 59 68 54 58 61 62 43 46 45 36 38 34 40 41 46 42 37 33 35 36 38 40 43 44 45 48 51 52 52 52 53 51 51 49 48 46 45 47 48 48
22 28 18 18 30 32 34 30 33 37 42 40 37 39 43 46 34 30 31 33 35 35 34 34 36 39 39 41 44 45 47 48 50 50 50 49 46 45 43 43 41 41 42
25 23 25 26 28 27 29 33 32 35 37 37 33 35 28 30 31 31 31 32 31 31 33 34 36 39 41 43 46 47 49 50 50 51 50 48 46 45 45 42 41 40 36
30 30 31 32 31 34 36 37 40 39 40 38 36 35 33 31 30 29 29 29 32 32 33 35 37 41 44 45 47 48 49 48 48 47 46 45 43 41 40 39 38 33 33
35 37 38 41 44 44 42 42 40 40 40 37 37 37 35 32 30 31 31 32 33 35 35 36 38 39 38 39 40 42 43 43 42 42 42 41 41 40 38 39 39 37 38
41 40 40 40 42 42 41 41 42 41 41 40 38 40 37 36 35 34 33 36 37 37 35 37 38 39 39 40 41 43 42 42 42 43 43 44 43 41 41 40 38 37 37
45 43 42 40 39 38 38 39 40 41 41 41 40 39 41 41 41 39 39 41 43 41 39 41 43 43 43 45 44 44 44 44 45 45 44 44 44 43 42 39 36 35 33
49 48 46 45 44 42 41 40 41 42 41 42 42 42 42 42 43 43 42 42 42 40 39 42 43 44 45 45 44 45 45 43 44 44 44 42 39 39 37 37 34 35 36
52 52 51 49 47 47 47 46 46 45 44 43 43 43 44 44 45 47 47 45 43 41 42 43 44 45 48 47 46 44 43 42 42 42 39 37 36 36 37 33 33 35 33
54 55 55 55 54 53 53 52 51 52 51 48 48 47 46 48 49 50 50 46 44 42 43 43 43 43 44 44 43 42 41 41 40 38 36 34 32 33 30 28 28 34 38
65 63 64 63 60 59 60 60 59 58 57 53 51 52 54 54 52 51 52 47 45 43 44 43 43 43 42 43 44 43 42 40 40 37 33 32 31 31 30 21 26 26 24
64 63 62 59 56 55 55 56 56 57 58 57 55 55 55 53 53 50 49 47 44 43 43 42 41 44 46 46 44 43 41 39 37 32 30 28 30 30 25 21 21 22 21
61 59 58 57 54 51 52 54 54 55 55 55 54 52 53 51 51 48 48 46 44 42 41 43 44 43 45 44 43 41 39 36 32 29 29 27 25 23 24 20 17 17 17

GFSMA_500_spd_090.txt.gz
Wind_Speed
44 43 40 37 35 33 33 32 31 29 28 26 25 24 24 24 23 22 22 22 22 24 25 25 26 26 25 26 26 26 28 29 29 30 31 33 34 35 37 41 37 32 31
48 44 41 39 37 36 34 34 33 31 29 29 26 31 29 28 26 25 25 25 26 27 27 28 28 29 29 29 30 30 29 30 31 31 33 35 37 36 37 38 33 31 32
49 46 44 42 40 40 37 37 36 34 32 31 28 36 32 31 29 28 28 29 31 30 30 31 31 32 31 33 34 35 35 34 34 34 36 37 36 35 38 37 33 31 31
52 49 46 45 44 43 40 40 40 39 36 32 35 39 35 34 33 31 32 32 34 34 33 34 33 35 35 35 37 38 40 39 37 37 37 38 34 38 40 38 33 32 31
53 51 49 48 47 45 44 44 43 42 40 34 38 40 38 37 36 35 35 36 36 36 36 37 37 37 38 39 40 40 40 41 39 38 37 36 38 42 40 37 34 33 33
53 54 52 52 51 49 49 48 45 44 42 46 43 40 38 40 40 39 39 39 39 39 40 39 39 41 40 40 41 41 42 42 40 41 38 41 44 42 41 39 37 36 36
53 58 57 56 54 54 53 47 50 47 46 47 41 38 40 40 43 41 40 42 41 42 42 42 43 42 41 41 41 41 42 45 44 43 44 42 41 40 39 40 39 39 38
51 57 59 56 57 56 51 53 53 47 47 51 37 41 40 42 44 41 43 42 42 44 45 45 46 44 43 38 40 41 45 46 43 42 39 40 41 41 41 42 44 43 41
59 59 54 55 53 57 57 47 53 47 51 53 41 41 44 44 45 44 43 41 46 46 44 47 45 44 43 42 43 42 43 43 42 42 42 41 44 46 47 49 50 45 43
56 57 48 48 55 54 55 53 43 46 49 43 37 37 39 34 36 37 34 37 38 39 42 45 47 45 45 43 41 42 42 43 44 45 46 45 46 48 50 52 52 50 47
52 37 39 42 40 33 46 47 47 39 38 40 40 36 40 46 47 40 39 40 40 40 35 39 43 40 40 43 44 46 44 44 45 45 44 45 49 51 53 55 53 49 48
38 49 59 58 50 44 47 49 49 44 49 41 40 38 39 45 43 42 40 38 43 42 43 41 42 41 40 37 40 39 40 42 45 46 49 50 52 54 54 51 47 47 46
53 51 51 42 38 44 51 51 50 48 38 38 37 45 47 39 37 39 41 41 41 41 45 43 40 36 32 33 37 39 41 44 47 47 52 52 52 51 47 46 45 41 40
56 55 61 64 64 59 58 55 51 49 40 40 43 47 43 36 41 44 40 40 38 37 37 30 30 31 33 35 35 37 39 43 46 48 50 51 52 50 49 48 46 42 38
41 63 72 64 52 39 46 55 52 55 44 49 59 50 47 41 33 46 47 33 24 20 24 27 27 29 31 32 32 35 38 41 44 47 50 51 51 48 46 44 42 40 40
19 16 22 25 30 31 26 30 40 33 34 33 26 31 30 32 29 26 20 20 22 22 24 23 26 29 31 32 34 35 37 41 44 45 44 43 41 39 39 38 37 36 34
21 21 22 23 29 29 31 32 27 27 34 34 30 26 28 30 29 25 26 25 24 26 27 26 28 30 31 34 34 36 37 38 38 38 40 40 40 39 39 39 37 35 34
29 33 32 32 28 31 32 28 31 33 32 34 34 36 34 32 31 32 32 29 30 29 29 30 29 30 31 33 35 37 38 41 44 43 42 42 42 43 42 41 40 39 38
32 37 37 40 41 41 42 43 42 43 45 43 43 42 41 40 40 36 31 31 32 32 33 34 36 36 37 39 38 41 43 44 46 45 45 44 43 44 43 43 41 39 36
39 40 39 40 42 42 43 41 43 43 43 44 45 46 45 45 40 39 37 35 35 37 38 38 38 39 38 38 41 44 43 46 47 46 43 41 43 42 42 38 36 36 35
44 45 44 44 46 46 45 43 43 41 40 40 40 42 42 42 41 40 38 38 39 39 40 41 41 40 39 41 42 44 43 44 43 42 41 41 40 40 38 36 35 34 35
50 48 46 45 46 45 45 45 44 43 43 42 41 41 41 41 41 40 40 40 41 42 43 42 43 40 41 41 43 41 40 40 39 38 40 40 40 38 35 34 31 30 29
55 54 53 52 50 49 49 47 48 48 48 47 46 44 43 43 42 41 43 44 43 44 46 47 46 43 42 41 41 40 39 40 43 42 41 41 38 35 33 32 29 27 24
65 62 62 60 59 59 58 56 55 53 52 53 52 51 49 49 48 47 46 47 47 50 50 49 46 44 41 40 41 41 41 42 44 44 43 41 35 31 30 27 25 26 25
68 68 65 65 63 62 60 59 58 55 55 55 54 53 52 52 52 52 52 52 54 52 50 47 47 43 41 38 39 41 42 43 43 40 38 36 31 29 28 26 25 26 23
68 70 68 66 64 61 56 54 56 55 54 55 54 54 53 53 53 52 53 53 53 50 49 47 45 42 41 39 38 41 42 39 39 36 34 33 30 31 27 27 25 24 22

GFSMA_500_spd_093.txt.gz
Wind_Speed
49 48 45 43 41 38 35 33 32 33 32 30 28 27 25 23 23 23 23 23 24 24 24 24 24 25 26 26 26 27 28 30 31 32 34 35 35 36 36 35 33 35 34
51 49 48 46 43 40 37 36 36 35 34 33 32 29 28 24 25 29 27 26 27 27 28 27 28 28 28 29 29 30 30 31 33 33 35 37 39 39 39 34 37 38 34
54 51 50 48 44 42 40 40 39 37 37 37 34 33 31 28 26 33 31 29 30 31 31 31 32 32 33 33 34 33 34 35 35 37 37 39 40 40 39 37 41 40 33
55 54 53 48 46 44 44 42 41 41 39 39 39 36 36 33 31 37 34 32 32 34 34 35 36 35 36 36 37 37 38 38 38 40 39 41 40 41 43 44 41 36 34
59 54 51 50 50 48 45 45 46 44 43 43 43 40 38 34 36 38 36 34 33 36 37 38 38 38 40 40 39 39 40 41 41 41 39 40 43 44 42 40 38 37 36
58 56 55 55 53 50 50 49 49 48 48 47 47 44 40 41 35 39 39 35 35 36 39 41 41 41 42 43 42 42 42 43 42 42 41 43 44 43 40 37 39 39 38
60 63 57 56 56 55 53 52 52 51 51 51 49 44 44 42 46 42 41 38 36 36 39 40 40 41 42 44 44 43 43 43 43 42 43 43 41 43 40 42 42 43 44
42 53 58 60 59 57 56 56 56 55 55 51 46 54 50 43 43 45 43 39 41 41 42 41 42 42 42 43 43 45 44 44 44 45 41 41 43 44 44 46 49 48 47
46 38 41 51 62 62 62 61 59 54 52 53 63 56 46 44 45 51 48 44 44 45 41 40 41 42 43 44 45 45 44 44 43 41 43 42 45 44 46 44 46 48 49
42 48 41 37 50 59 62 64 66 51 52 42 46 43 44 47 55 35 38 38 37 36 34 34 35 36 37 40 40 42 41 41 41 44 44 41 41 40 45 49 50 51 49
31 42 44 41 34 41 40 38 54 50 35 36 36 37 41 36 34 33 36 41 42 44 39 39 40 42 42 42 41 40 40 39 41 43 42 40 42 42 45 48 50 53 53
37 37 41 52 58 49 45 35 33 35 40 43 38 43 46 42 45 41 40 43 37 47 50 42 45 44 44 44 42 42 37 34 30 35 35 39 42 45 48 52 54 56 53
48 49 52 48 39 50 46 48 34 43 38 38 43 52 48 48 48 42 46 48 48 42 42 38 39 43 41 39 19 20 22 26 29 33 37 39 42 43 45 49 49 48 45
48 47 47 46 46 47 47 47 45 46 48 50 46 44 43 38 38 34 35 47 46 45 44 42 33 30 21 18 20 23 26 29 32 36 38 40 43 44 43 42 41 41 39
44 45 53 48 53 55 50 51 55 56 43 45 46 47 47 41 46 56 47 43 45 48 48 32 24 13 14 17 19 22 25 30 33 35 37 38 40 40 38 38 37 36 36
23 26 33 35 40 44 63 54 44 46 37 36 32 35 36 44 43 41 46 37 48 41 24 17 17 20 21 22 24 26 28 31 32 35 36 38 38 40 40 38 38 37 38
18 16 20 21 23 24 24 29 29 37 34 32 30 27 29 31 34 30 23 22 22 20 19 19 21 23 25 26 28 30 32 33 36 39 40 42 43 43 41 40 39 39 40
17 23 28 28 29 29 28 26 32 34 29 31 32 33 31 32 33 26 28 25 27 27 26 26 28 28 28 30 30 30 33 36 37 38 40 41 44 45 42 41 40 40 40
24 27 28 30 31 34 35 31 32 32 36 35 37 33 33 31 34 36 33 33 33 35 36 33 32 32 30 31 32 34 36 36 38 40 41 43 44 42 40 39 40 38 37
33 34 36 39 39 39 42 45 47 45 45 45 44 44 42 43 45 44 40 38 39 36 36 35 35 33 35 36 35 36 38 38 38 40 41 41 38 37 39 39 39 38 35
38 39 40 42 44 46 47 48 50 53 52 53 52 53 52 51 53 52 47 44 43 42 40 38 39 39 40 40 38 37 38 40 39 39 41 40 38 40 41 41 40 38 32
47 49 48 48 48 49 48 49 51 53 54 54 51 48 49 47 49 48 47 45 44 42 42 41 41 42 42 40 40 40 38 40 40 40 41 40 40 40 42 41 41 35 30
49 49 52 55 56 58 57 56 55 53 54 54 52 51 50 50 48 48 47 45 45 43 43 42 42 43 43 41 44 41 41 41 40 40 42 43 42 43 40 39 35 31 27
60 60 60 58 59 60 61 62 62 60 58 56 56 55 53 53 53 52 51 48 47 45 45 45 46 45 45 46 43 42 42 42 41 39 41 42 42 41 39 34 30 28 26
70 70 69 67 65 63 66 66 64 63 64 62 63 61 58 57 56 55 54 53 51 49 49 48 49 49 48 48 46 44 43 42 41 39 40 43 41 38 33 29 28 27 25
81 80 77 74 69 65 66 68 69 69 65 62 63 62 60 62 61 59 58 57 55 55 54 51 51 51 49 47 46 44 43 41 40 39 39 39 38 35 32 29 29 26 25

GFSMA_500_spd_096.txt.gz
Wind_Speed
49 51 48 45 43 43 40 39 36 34 34 32 31 31 30 29 30 28 25 24 23 24 24 24 26 27 28 30 29 29 29 30 32 32 34 36 37 39 39 38 38 40 43
50 45 42 51 47 47 45 41 39 37 37 35 35 35 34 33 33 31 28 27 26 28 28 27 28 29 30 32 32 32 33 33 34 35 35 37 39 39 40 39 38 41 43
60 61 58 53 52 52 50 44 41 40 39 37 38 38 36 36 35 34 32 29 28 31 32 31 31 30 32 33 35 36 36 36 37 36 37 37 39 38 37 37 40 38 39
64 66 56 45 48 50 50 46 45 44 41 40 40 40 39 39 40 37 37 32 32 33 35 35 34 33 33 34 35 38 39 39 39 39 39 40 39 41 40 41 39 39 39
60 64 62 69 57 61 51 46 48 45 44 43 43 43 42 43 43 41 40 35 32 36 37 37 37 36 36 36 36 38 40 41 40 40 41 39 40 41 43 42 40 40 40
27 69 63 66 64 59 56 54 50 46 47 46 45 46 45 45 46 43 41 38 38 37 38 39 38 38 38 38 38 40 41 42 42 41 40 40 40 40 42 41 43 41 41
37 39 40 69 67 62 59 55 52 51 50 49 49 49 48 48 46 43 48 46 47 33 41 41 38 38 39 42 42 42 43 43 43 41 40 40 42 40 40 41 42 44 46
27 25 36 45 67 60 59 60 56 53 54 55 55 55 52 48 46 47 52 60 56 42 43 44 39 42 45 45 46 46 46 45 43 42 39 39 40 40 41 42 42 45 45
34 26 27 32 58 60 63 61 60 59 58 59 58 59 58 54 43 52 58 58 51 43 48 53 46 45 44 43 40 38 36 36 38 38 38 38 40 44 43 40 43 40 44
54 37 35 38 36 54 64 64 64 63 61 63 68 59 49 55 55 56 53 48 43 43 37 36 37 34 35 38 38 39 38 37 38 37 37 38 42 41 38 41 39 42 45
55 55 41 37 39 36 39 44 48 51 62 67 45 37 35 31 30 33 29 35 37 37 35 35 42 41 40 41 46 46 41 40 41 39 38 34 32 32 36 39 41 43 45
41 47 42 41 48 46 42 38 32 33 32 32 42 35 43 40 39 39 39 40 36 37 43 39 39 41 43 46 45 42 40 41 39 28 28 30 31 33 37 40 43 44 46
45 48 48 42 50 52 48 49 43 38 38 42 46 41 34 35 42 44 48 50 50 48 48 49 51 45 46 41 37 37 36 29 21 18 22 25 31 34 38 41 43 45 41
42 46 44 46 45 45 49 45 47 52 61 42 42 43 42 42 46 44 48 49 50 42 35 35 38 46 40 41 43 35 17 13 16 19 21 25 31 36 39 42 40 40 41
44 34 45 46 48 47 48 52 48 43 43 46 52 52 54 50 45 46 46 43 43 42 47 45 48 49 49 53 36 19 18 18 19 22 24 27 30 35 37 41 41 42 40
41 44 42 44 47 44 49 52 49 46 46 47 50 49 51 47 40 40 41 41 48 48 48 45 58 62 54 32 23 25 23 26 27 27 29 31 34 37 39 41 43 43 43
20 25 33 36 38 33 33 37 40 45 48 49 42 50 40 35 45 44 39 42 44 42 43 44 47 42 31 31 29 26 27 30 30 32 33 34 36 38 39 41 44 44 40
24 25 25 27 30 32 32 31 28 31 34 32 34 32 36 34 30 34 34 30 30 33 32 28 24 25 27 34 28 33 35 33 32 33 35 37 39 40 40 43 44 40 39
19 21 23 26 29 33 35 35 35 36 37 35 41 40 39 34 33 37 38 34 28 36 33 37 30 32 31 33 40 39 37 35 33 33 34 38 41 42 41 42 43 42 41
29 31 32 34 36 38 38 35 37 36 35 34 33 33 35 35 36 33 40 39 32 41 38 35 37 35 41 45 44 43 40 37 34 34 37 40 42 42 41 41 43 42 42
37 39 39 40 42 43 44 46 47 47 47 47 47 47 44 44 44 46 41 41 48 49 50 44 43 41 43 44 45 45 43 39 36 38 40 41 43 42 40 40 42 43 45
35 37 38 41 48 50 51 51 50 50 51 53 55 56 56 58 58 58 59 60 61 57 55 52 49 48 46 47 47 47 43 40 39 42 42 43 42 42 41 41 42 43 45
47 48 49 50 53 51 53 53 55 57 58 58 55 56 58 59 60 58 59 58 54 55 45 51 51 37 49 53 50 48 44 43 42 43 43 43 43 43 42 41 41 43 44
62 63 63 62 61 60 62 63 63 60 60 62 62 61 60 59 59 60 59 58 56 57 57 62 55 55 55 52 49 47 45 44 45 45 44 43 44 44 42 41 41 42 39
71 71 72 73 70 69 72 74 73 70 67 67 67 68 64 63 62 62 62 61 60 60 59 58 55 54 53 51 49 48 48 47 49 47 44 43 44 43 42 39 39 38 36
83 85 84 82 82 82 82 80 80 76 74 73 73 73 72 68 68 68 66 64 63 62 61 60 59 58 56 53 53 51 51 51 49 46 43 43 42 42 40 38 37 37 33

GFSMA_500_spd_099.txt.gz
Wind_Speed
56 54 51 46 45 46 45 43 39 38 37 36 34 33 32 31 31 31 30 29 29 28 28 26 27 27 27 26 28 29 28 29 31 32 33 35 35 36 37 36 36 36 37
56 55 51 50 48 49 50 48 45 42 40 38 37 35 35 34 34 33 32 32 31 31 31 29 29 30 30 30 29 30 31 31 33 33 34 35 35 36 38 36 36 37 38
59 58 57 53 47 55 58 53 50 43 42 42 40 39 38 37 36 36 35 35 35 33 34 31 33 32 34 32 33 33 33 33 34 35 35 35 35 36 37 36 35 37 38
53 63 55 64 50 50 45 55 53 48 46 46 44 42 40 40 39 38 39 38 37 37 36 36 34 37 37 36 35 36 36 36 37 37 37 36 35 36 37 35 35 37 36
49 59 51 50 65 62 56 47 46 53 53 51 45 44 44 43 42 41 41 41 40 38 39 39 36 39 38 39 38 39 39 39 41 41 41 39 38 36 38 35 38 37 38
52 57 56 46 53 65 63 61 51 54 51 49 46 47 47 46 45 44 43 43 41 41 40 44 44 44 44 41 42 40 41 43 44 44 43 41 39 37 36 37 37 37 38
49 57 57 60 46 51 67 72 62 60 52 58 54 51 50 48 48 47 45 43 40 41 43 46 46 52 40 41 44 43 43 46 47 48 46 42 36 35 33 37 37 41 40
36 59 60 49 41 45 71 68 68 69 63 61 55 54 52 52 51 51 48 45 45 46 45 48 55 49 57 50 46 47 47 47 46 40 33 32 32 33 34 36 40 40 38
34 42 53 46 39 37 35 57 71 69 68 69 64 63 59 58 57 58 57 50 52 50 54 53 55 58 56 47 50 52 51 48 40 37 37 33 32 35 35 38 38 36 37
26 39 53 42 45 32 33 38 51 69 69 70 67 60 61 62 63 61 58 58 60 60 50 50 54 51 45 41 40 39 38 38 39 41 42 40 35 36 37 34 35 36 38
39 35 35 38 45 37 48 42 38 46 66 68 63 60 63 64 66 60 49 38 30 27 31 35 40 42 41 35 35 40 40 39 43 44 42 39 35 32 32 32 33 35 38
43 41 42 49 42 41 38 41 45 36 42 45 47 46 44 42 38 34 35 33 35 40 39 39 38 37 36 42 43 41 39 39 41 39 38 36 33 28 28 29 30 34 37
40 38 42 42 49 44 42 43 40 37 37 40 41 45 42 46 47 35 38 41 48 47 49 47 49 44 47 46 49 46 44 41 39 39 36 31 29 25 24 26 28 35 38
38 48 50 49 48 47 42 44 48 50 48 43 41 43 42 39 46 43 40 39 38 46 45 44 49 55 50 50 47 45 39 39 40 39 29 26 26 23 25 26 31 35 39
32 44 46 39 46 47 43 46 53 51 52 50 52 49 50 53 43 44 40 42 52 53 47 49 50 52 52 44 44 42 43 48 43 32 28 28 28 26 27 29 33 37 40
29 30 42 45 41 40 44 45 46 50 53 48 46 45 50 51 47 48 49 51 51 49 47 45 46 49 50 53 48 49 48 45 34 31 32 33 31 32 33 32 35 37 38
32 36 36 39 41 40 44 41 45 48 49 49 49 52 49 51 48 51 56 59 49 47 44 45 46 48 52 54 56 52 51 44 35 38 32 29 35 39 38 36 37 37 39
26 27 29 35 39 46 43 45 45 53 49 50 56 48 44 51 54 52 47 42 46 42 45 39 42 51 51 50 54 55 44 39 37 37 36 39 39 40 40 41 38 39 41
28 26 28 30 31 32 35 38 40 42 40 41 43 44 39 37 41 37 38 38 44 43 40 31 33 38 36 39 42 41 35 36 35 36 39 43 41 39 39 39 39 39 42
24 24 27 31 32 35 36 37 40 43 45 46 41 41 44 44 45 46 43 40 40 43 43 39 38 41 36 35 35 33 35 37 40 43 47 44 42 40 41 39 40 41 43
30 33 36 39 40 43 44 45 46 47 49 49 50 50 45 43 43 43 42 41 41 37 39 43 48 46 41 37 40 43 46 49 53 54 51 47 46 43 41 40 41 41 43
33 37 39 42 44 46 46 49 51 52 54 53 53 54 54 55 53 53 52 50 45 45 46 43 50 52 49 51 51 51 52 52 54 52 52 51 49 44 42 41 42 42 43
42 47 50 52 54 56 58 59 59 59 59 59 59 57 56 58 58 59 60 61 59 59 57 53 47 50 55 57 56 55 56 54 54 52 53 52 50 45 43 43 43 43 43
58 60 62 64 66 67 69 71 71 71 70 69 67 65 63 61 61 62 63 62 60 62 59 60 60 63 62 63 55 52 51 53 52 54 53 50 47 44 42 44 45 43 42
68 72 75 77 78 81 82 83 83 82 80 79 75 75 73 69 67 67 67 65 65 64 62 59 57 62 56 58 48 47 57 54 53 48 51 49 47 44 44 44 44 42 41
77 83 87 91 92 93 93 92 93 92 91 89 86 83 80 78 76 73 71 69 69 67 67 66 66 65 65 71 64 66 61 55 56 54 52 47 46 46 45 43 42 40 40

GFSMA_500_spd_102.txt.gz
Wind_Speed
32 32 39 42 48 51 49 46 45 43 42 39 37 37 36 35 33 33 31 30 30 29 28 28 28 28 27 26 27 27 30 30 30 31 31 32 32 32 31 31 32 32 31
34 36 34 37 48 52 50 50 48 46 45 42 40 39 39 38 36 36 34 33 32 32 32 30 30 31 30 29 29 30 31 33 33 33 34 34 35 34 34 33 33 33 30
43 42 43 45 45 50 52 51 51 49 48 44 43 43 42 41 39 38 37 36 35 35 35 34 33 34 32 31 30 32 33 36 36 36 36 36 37 37 37 37 36 33 30
51 47 43 46 50 52 51 49 52 52 52 51 47 45 47 45 42 41 41 39 38 38 37 37 37 35 36 36 35 36 37 35 38 39 38 37 38 39 38 39 37 33 32
47 49 47 44 46 54 55 58 46 48 59 62 59 52 52 49 47 44 43 43 42 40 40 40 39 38 38 40 39 38 42 44 41 40 40 40 40 41 42 41 37 34 33
47 43 45 41 47 48 54 55 57 59 53 48 47 44 48 50 48 46 45 45 44 43 42 41 40 39 42 42 42 43 43 49 45 42 41 42 43 43 40 35 32 32 34
49 45 44 42 45 46 53 51 48 54 62 64 65 65 58 55 53 50 47 46 46 46 42 41 45 47 45 44 49 47 47 44 48 47 43 43 42 37 32 32 32 33 34
53 48 44 43 41 49 55 51 48 48 50 62 60 50 47 51 46 50 49 50 50 47 45 46 51 50 51 52 52 53 57 51 52 50 45 46 44 34 35 35 34 34 34
44 41 42 43 42 45 55 57 58 63 58 52 53 61 67 65 71 52 51 51 53 56 47 49 54 56 53 56 53 59 57 55 53 51 47 44 36 33 39 39 35 36 32
46 44 42 41 43 37 42 53 47 40 41 45 60 65 67 66 66 64 64 62 63 62 62 61 58 55 57 57 60 59 53 48 44 41 35 36 37 37 41 37 35 33 32
45 45 39 37 35 43 45 45 43 45 45 48 49 57 68 70 69 67 69 61 63 61 48 40 38 44 49 47 40 44 44 39 37 42 40 39 39 36 40 35 32 32 31
39 37 36 40 37 37 46 49 52 51 54 39 44 44 50 67 65 64 61 49 33 29 28 28 28 32 33 34 38 40 41 40 38 41 39 38 38 33 32 33 31 29 30
53 49 44 46 50 47 49 44 50 48 41 44 42 46 47 44 42 43 39 33 32 34 35 36 38 39 40 43 45 45 45 44 44 45 46 42 37 34 35 33 30 29 28
45 44 46 48 47 49 51 45 50 55 51 48 47 42 42 37 39 41 42 41 41 37 37 40 39 39 39 46 44 44 47 52 52 48 48 42 36 34 35 32 32 30 30
45 49 43 43 44 47 51 51 53 54 54 50 51 49 46 42 41 42 43 49 49 39 43 45 45 42 47 50 47 49 50 53 53 47 43 42 42 40 38 36 34 33 32
33 46 47 44 46 43 49 47 46 48 46 46 48 50 50 49 51 50 50 55 52 54 53 51 50 47 48 46 46 47 50 49 51 45 43 43 43 43 41 38 37 38 37
30 33 41 42 41 35 41 47 43 42 49 46 47 50 54 57 53 56 51 48 49 54 54 53 53 54 51 47 47 47 47 49 49 50 48 46 44 42 42 40 37 39 39
25 30 36 36 40 44 42 43 41 41 44 44 44 46 45 48 50 49 51 57 57 56 54 54 55 57 51 50 45 47 48 42 50 54 51 46 44 45 42 39 35 40 42
33 32 31 30 28 31 34 36 38 40 50 52 54 48 50 54 52 55 50 54 53 54 56 56 48 49 50 49 43 46 47 52 53 50 52 53 45 42 42 39 42 43 42
17 21 24 26 27 28 31 32 34 37 38 38 37 39 40 36 36 45 49 45 46 44 40 43 44 43 42 39 36 41 41 42 43 48 45 45 43 46 40 42 44 43 41
26 27 30 32 34 34 38 43 43 43 45 47 50 52 52 50 49 45 48 50 50 48 40 41 38 46 47 44 42 45 43 40 37 36 36 38 38 39 42 46 48 44 44
28 32 34 36 39 40 43 46 47 48 50 52 53 55 55 58 58 56 57 54 53 60 55 47 49 41 43 47 51 49 45 41 44 41 42 44 47 50 52 52 49 46 46
37 41 44 46 47 50 53 54 57 59 60 62 64 63 62 63 62 63 61 60 60 61 61 56 57 50 54 51 44 45 52 53 44 44 46 50 53 55 52 48 48 46 46
47 50 53 56 58 61 64 66 68 70 71 72 74 76 75 73 72 71 68 67 66 63 61 62 64 61 60 58 53 51 53 52 44 44 49 57 53 54 52 47 45 49 47
54 58 61 64 65 69 73 76 79 82 85 85 86 87 87 87 84 82 79 75 72 69 69 67 66 64 63 61 60 63 51 47 52 54 49 45 47 43 42 45 44 46 46
61 64 67 71 75 79 84 87 90 93 95 98 100 101 98 96 93 91 87 84 81 78 76 73 71 69 66 64 59 60 60 62 53 51 54 52 52 54 45 35 38 41 40

GFSMA_500_spd_105.txt.gz
Wind_Speed
41 42 41 36 37 39 41 42 43 45 43 41 39 40 39 38 37 36 35 34 33 31 30 29 29 28 28 29 29 29 28 27 27 28 28 31 33 32 31 30 31 31 31
45 43 41 36 36 35 33 38 40 45 47 47 43 41 40 39 39 38 38 37 35 34 33 32 32 31 31 31 31 31 30 30 31 31 33 33 34 35 34 33 32 34 34
47 46 46 42 43 42 39 36 42 47 48 49 47 46 43 41 40 40 39 39 38 37 36 36 35 35 34 34 34 33 34 34 34 36 39 41 39 36 36 37 38 38 39
48 47 46 44 43 42 41 43 45 42 50 49 48 47 47 46 42 42 42 41 40 40 40 40 39 38 37 37 36 35 36 37 36 36 40 40 43 41 37 38 40 41 38
48 45 49 46 47 47 47 46 48 52 55 55 52 51 50 48 47 46 43 44 43 42 43 43 42 41 41 40 38 37 38 42 41 41 45 44 44 42 39 39 40 39 31
47 47 48 49 48 49 50 54 51 48 51 60 50 47 42 49 54 55 52 49 47 48 45 44 43 43 43 41 40 41 41 44 46 43 45 47 47 42 39 40 40 35 31
50 55 49 49 48 47 50 50 48 49 50 55 55 54 44 56 51 46 41 44 50 51 50 46 45 45 44 42 42 44 44 50 51 50 52 52 52 48 44 44 42 36 34
52 49 50 51 53 51 46 46 44 46 51 55 57 55 54 58 55 53 59 59 57 54 51 50 47 44 44 46 52 50 52 54 53 55 53 52 56 52 44 43 40 33 35
60 53 52 56 57 52 44 49 48 47 56 55 47 55 54 51 44 47 54 55 55 56 54 55 52 57 57 57 56 55 54 57 57 53 53 58 53 42 39 37 34 34 36
56 52 54 56 59 49 44 47 48 50 50 55 53 50 53 55 55 48 46 53 55 56 58 66 56 58 57 59 57 58 61 63 57 50 49 49 36 32 31 34 33 35 35
52 51 52 51 53 52 48 48 50 50 44 54 56 52 44 48 47 51 52 60 66 69 64 63 65 55 50 43 44 40 38 36 36 38 41 36 31 32 30 33 33 32 30
54 50 49 50 48 49 46 47 44 42 42 42 45 49 51 50 48 48 50 55 64 63 64 57 47 40 40 36 32 28 29 31 35 37 37 36 33 33 33 35 37 35 32
48 50 50 53 52 46 44 45 47 44 48 49 49 48 48 49 46 47 50 48 51 58 56 42 29 27 28 34 34 35 35 38 40 42 40 36 40 41 37 40 39 34 31
48 51 52 54 51 51 52 53 52 55 51 56 51 59 56 46 43 48 50 49 56 42 33 32 32 31 33 36 42 38 38 37 41 44 43 41 43 48 48 44 40 33 34
47 48 49 50 54 50 50 51 52 52 52 55 57 45 49 53 48 46 50 51 49 42 38 39 39 35 37 38 42 45 44 41 43 47 47 46 44 47 47 43 40 39 37
38 40 39 44 55 56 53 50 42 47 47 51 55 51 55 54 53 52 49 50 51 45 44 42 44 43 45 48 50 54 53 47 45 49 48 45 44 45 45 44 41 40 40
28 33 32 32 36 36 43 46 49 49 45 46 46 48 51 50 50 47 49 47 48 48 48 52 50 50 50 52 53 48 56 52 51 49 47 44 45 42 47 46 43 44 41
31 33 41 35 30 33 39 40 46 46 45 39 42 49 51 48 48 45 46 45 51 56 63 60 54 53 54 53 51 55 51 52 53 51 47 46 47 42 48 48 46 46 38
31 33 31 33 32 33 35 33 35 42 39 41 45 47 45 50 49 47 48 49 46 48 44 51 51 58 62 62 57 57 57 53 53 50 47 46 46 48 48 46 48 46 41
25 26 29 33 33 38 37 35 32 29 31 34 34 35 36 37 35 36 41 42 47 46 50 48 47 47 50 52 52 50 48 46 47 46 42 43 47 49 47 46 46 49 44
24 24 23 28 29 29 30 30 33 37 39 40 39 41 41 45 47 45 43 46 41 37 42 46 42 43 42 42 40 41 41 38 37 38 40 39 40 43 41 42 39 40 40
24 26 28 31 33 34 38 38 40 42 44 45 46 49 49 49 50 52 54 53 54 55 50 49 50 49 44 39 40 46 44 44 46 44 45 43 44 39 35 34 34 34 37
31 34 36 37 39 42 44 46 48 50 52 53 55 58 60 60 61 62 63 62 62 62 61 60 60 55 50 54 53 47 50 47 47 46 47 47 48 45 40 37 38 39 41
39 42 44 46 48 50 52 54 56 58 60 62 63 65 68 69 72 73 74 73 73 71 68 68 67 64 63 63 61 56 59 54 56 48 45 51 57 54 52 39 39 42 46
48 51 54 56 58 61 63 64 67 68 69 71 74 76 77 79 82 84 84 84 82 81 80 78 76 73 70 69 68 69 68 70 57 61 55 52 45 54 47 42 42 42 40
56 59 61 65 67 69 72 73 75 76 78 80 81 84 86 89 91 93 93 94 93 91 89 89 85 82 79 76 73 71 72 73 69 66 61 58 47 50 47 42 38 35 34

GFSMA_500_spd_108.txt.gz
Wind_Speed
53 49 47 40 41 40 39 38 36 41 41 42 43 42 40 41 39 39 38 36 36 36 35 34 33 31 31 31 30 30 30 31 31 31 31 31 31 31 32 33 35 34 32
50 49 50 47 47 43 40 38 36 35 35 40 44 43 43 43 44 43 40 38 38 37 37 37 36 35 34 34 33 33 32 33 33 33 34 34 34 34 33 31 33 37 36
48 47 51 50 49 49 40 36 35 35 34 35 35 39 45 48 45 46 44 42 39 38 38 38 38 38 37 37 37 36 36 36 36 36 38 37 37 38 38 35 36 36 38
56 50 52 52 51 48 45 43 44 40 41 33 36 37 39 48 49 48 47 45 42 41 38 41 41 40 40 40 40 40 39 39 39 39 40 40 39 38 42 42 40 37 35
44 45 53 53 50 49 48 47 45 45 46 46 44 47 46 39 43 49 48 46 46 45 42 42 43 43 43 42 42 42 42 41 42 41 42 43 40 41 43 43 42 43 40
49 53 56 58 53 51 48 46 44 44 44 47 49 51 51 53 49 52 56 51 44 47 46 45 46 46 45 46 46 46 46 45 42 43 46 47 44 44 47 48 47 46 44
56 48 48 49 52 47 45 48 47 45 46 47 50 53 53 54 60 56 45 44 44 45 57 55 51 47 49 49 49 48 48 48 47 45 46 47 46 47 48 50 50 51 44
63 58 51 42 45 44 49 49 47 48 49 48 50 52 53 53 55 55 56 52 51 52 52 43 47 51 54 57 52 53 52 49 47 48 53 52 50 49 49 52 50 43 36
75 66 55 56 45 46 50 49 51 53 53 49 51 52 50 51 55 58 54 60 53 53 49 54 54 60 62 57 55 56 52 51 57 64 61 56 55 55 53 43 36 32 29
79 80 72 54 54 51 49 53 52 54 51 47 47 52 53 50 54 55 55 59 52 52 50 52 55 57 61 61 61 59 59 50 56 58 53 52 53 45 34 35 27 27 27
69 74 71 60 54 60 65 54 52 51 53 51 49 52 54 53 53 54 50 49 55 60 54 50 51 53 54 57 63 64 51 41 39 41 36 30 24 26 28 28 26 25 27
56 64 63 63 57 58 57 54 53 53 50 50 49 49 49 49 47 53 56 52 48 46 50 50 52 58 65 69 59 44 43 43 40 38 31 29 29 28 30 32 29 25 30
43 54 53 57 57 53 53 53 52 52 52 53 49 48 46 44 45 49 53 51 50 49 51 50 52 53 48 52 53 41 40 38 42 37 33 35 32 29 31 34 39 36 37
42 52 46 46 51 57 55 50 51 52 50 51 52 55 52 48 51 52 52 51 48 50 50 49 50 49 50 45 37 33 39 38 41 41 38 36 35 35 38 42 42 44 43
40 43 44 45 47 47 47 46 49 53 54 54 51 53 54 53 55 57 55 54 58 59 58 48 48 49 41 38 36 36 36 36 37 43 42 42 39 38 44 42 40 40 39
36 38 41 42 45 47 47 47 47 51 54 57 55 50 49 53 49 52 61 52 51 52 55 49 46 47 47 46 44 44 42 44 41 43 46 47 49 41 40 41 42 44 40
29 33 37 37 33 32 35 39 41 46 48 49 51 50 51 47 41 43 51 56 56 56 55 53 47 49 51 54 49 50 48 47 46 49 49 48 52 48 44 43 44 44 41
29 28 28 29 36 38 40 41 42 40 37 42 45 45 47 51 45 44 46 47 50 54 58 51 51 51 51 52 50 53 55 53 50 47 47 50 50 51 46 45 46 45 41
32 33 34 36 45 42 40 37 41 35 33 35 40 45 47 47 48 50 52 50 50 49 46 45 47 48 49 54 59 63 57 56 54 53 53 51 56 52 45 47 46 46 42
30 34 31 34 35 38 39 41 44 44 40 39 38 37 37 33 35 38 36 39 38 39 41 48 51 53 53 44 44 45 49 50 53 55 55 52 49 49 48 48 46 43 41
18 20 22 25 28 29 25 31 32 30 34 36 36 39 39 39 41 40 39 40 42 41 40 44 42 41 39 41 46 45 49 47 45 45 44 43 43 42 40 39 38 38 39
27 30 30 32 33 35 35 36 38 38 40 41 42 45 46 46 47 48 48 47 49 49 47 47 50 49 47 45 41 44 43 42 41 39 39 38 37 38 39 38 38 39 39
31 33 35 37 38 40 42 43 45 46 47 48 49 51 53 54 55 57 58 58 58 58 58 57 55 55 55 53 52 53 51 44 41 46 42 42 43 44 43 43 41 43 41
35 37 40 42 44 47 49 50 52 55 57 59 60 61 62 63 65 66 67 68 68 68 68 68 66 65 65 63 61 58 56 56 52 54 54 47 51 49 44 44 46 46 44
44 47 49 51 53 55 57 59 61 62 64 66 67 69 71 72 74 75 77 77 77 78 78 78 77 76 75 73 69 68 65 63 62 61 62 60 59 54 51 47 48 53 50
52 55 57 60 63 65 67 68 69 71 72 73 74 77 79 80 81 82 83 84 84 85 87 87 87 86 84 82 82 78 73 72 69 68 66 66 66 63 63 57 56 53 45

GFSMA_500_spd_111.txt.gz
Wind_Speed
49 48 49 48 47 45 42 42 41 39 38 39 41 41 41 42 42 41 40 41 40 37 36 36 35 35 35 34 33 32 31 31 31 31 32 33 32 32 32 32 32 30 29
48 47 46 48 49 48 47 45 43 43 43 41 39 38 41 40 40 43 43 42 43 41 39 38 37 37 37 36 36 36 35 34 34 34 34 36 35 36 33 35 35 34 34
53 49 43 46 47 48 48 47 47 42 39 39 42 35 35 34 31 38 43 44 43 44 42 40 40 38 38 38 38 39 39 38 38 37 37 38 38 38 35 36 36 36 37
54 45 43 47 51 48 48 51 48 46 45 38 39 36 34 36 36 36 38 39 45 46 44 43 41 40 39 40 41 41 41 41 41 41 40 41 41 39 38 38 37 38 39
55 55 52 43 49 50 51 56 54 51 47 45 44 46 44 39 39 42 41 43 42 46 46 46 48 44 43 43 42 42 42 42 43 44 44 43 41 43 43 39 38 39 42
60 55 61 50 55 48 48 46 47 47 47 48 51 51 52 50 49 50 50 48 48 44 43 45 46 46 47 47 45 45 44 44 45 47 48 46 46 45 44 40 41 42 45
64 62 58 67 54 47 53 53 53 50 51 51 51 49 47 48 51 49 50 49 51 57 55 50 50 46 42 50 51 53 51 48 49 48 49 50 48 44 46 48 51 47 47
67 64 62 65 58 48 55 51 56 53 50 52 50 50 49 46 48 47 50 51 53 53 56 53 47 49 50 45 50 56 48 50 51 53 54 50 48 47 50 55 56 52 47
66 66 66 62 74 54 51 48 44 46 43 43 46 48 48 48 49 51 51 53 52 51 52 51 54 55 53 51 49 56 53 56 63 61 54 54 52 48 60 55 46 42 38
67 67 65 64 66 77 71 52 43 41 38 41 43 45 47 48 50 51 51 53 54 51 53 54 54 57 56 53 53 53 56 57 61 60 55 48 55 51 41 37 28 27 29
65 67 68 64 64 67 74 76 68 62 45 44 47 49 48 51 54 52 52 54 55 54 51 54 53 53 55 54 57 52 55 55 54 50 49 49 46 34 27 23 24 23 24
58 61 65 63 60 65 69 68 76 70 53 48 47 53 51 52 53 55 55 51 51 48 47 45 48 47 49 49 48 49 50 53 55 53 55 45 43 35 27 27 27 25 30
47 45 51 57 57 60 61 62 57 54 53 57 54 48 54 58 58 54 51 48 48 40 45 50 47 47 46 48 49 49 49 49 43 46 45 43 36 33 30 32 31 32 34
36 44 43 43 49 51 50 52 56 54 55 52 53 52 55 55 53 50 52 52 51 47 48 50 53 49 46 48 47 50 48 47 50 48 45 41 38 39 34 31 30 33 34
35 38 39 44 48 47 48 48 52 54 56 55 56 55 53 52 53 56 51 51 49 51 49 50 53 55 51 51 53 49 44 44 46 43 42 42 40 43 39 41 37 37 39
38 39 41 42 43 46 46 43 42 42 44 45 48 53 57 59 57 56 54 47 45 48 52 51 52 54 53 54 56 50 43 40 38 40 42 42 40 38 40 42 42 42 39
38 42 43 41 40 41 40 44 46 45 47 49 50 51 49 51 52 52 49 50 48 44 46 49 51 53 56 50 51 48 47 45 46 46 46 45 46 43 43 45 46 44 46
29 27 29 32 32 33 36 32 33 36 40 41 42 43 44 46 43 44 46 50 50 53 48 47 50 46 46 45 52 53 51 48 51 52 54 54 51 48 46 47 46 43 46
23 25 29 34 35 33 37 38 39 45 42 41 43 44 44 39 43 49 51 47 52 47 48 48 47 45 46 42 47 50 52 49 53 54 52 54 54 53 48 45 39 43 46
31 32 28 30 36 31 35 36 38 39 39 42 42 43 46 46 45 46 45 43 43 45 44 40 39 40 44 44 48 47 48 50 48 47 52 54 59 54 52 49 45 47 51
17 18 19 24 27 30 31 32 33 37 41 37 38 42 48 42 45 40 41 39 38 38 35 37 38 33 37 34 35 32 34 30 31 39 40 42 44 44 43 45 43 43 47
28 28 29 28 31 33 35 35 37 39 40 42 43 43 44 44 48 48 47 47 45 45 45 45 46 44 44 44 45 44 40 38 37 35 35 34 34 35 39 40 40 44 45
31 32 33 35 36 39 40 42 44 45 47 48 49 49 50 51 53 53 54 54 54 54 54 54 54 53 52 52 52 52 51 47 45 44 42 41 35 31 31 34 33 36 37
37 39 40 41 43 45 47 48 50 51 53 55 56 57 58 59 60 61 62 62 63 63 63 64 63 62 62 61 59 58 58 57 55 51 49 47 45 43 41 37 37 37 37
44 45 46 48 49 50 52 54 56 58 61 63 65 66 67 69 70 71 72 72 72 72 72 73 72 72 71 70 71 70 67 65 63 60 58 56 52 51 51 49 48 45 42
48 50 50 50 51 53 55 57 59 60 62 64 69 73 75 76 77 78 80 79 79 79 78 79 79 80 80 80 79 78 77 75 71 68 65 64 62 59 58 55 55 54 51

GFSMA_500_spd_114.txt.gz
Wind_Speed
46 49 51 50 47 48 48 45 44 42 40 41 41 40 41 41 42 43 38 40 39 38 36 35 35 35 34 34 33 33 34 33 33 33 33 32 33 33 34 32 31 30 31
46 48 50 51 50 47 47 45 44 44 44 42 43 43 42 41 39 38 39 37 40 40 39 38 38 37 37 36 35 35 35 36 36 36 36 36 36 35 35 35 33 32 32
51 51 51 50 52 48 44 43 41 43 44 44 44 43 45 44 40 39 35 30 33 37 40 40 40 40 39 37 36 37 36 37 38 38 38 39 38 38 37 37 35 35 34
61 56 53 53 50 50 49 43 43 43 43 47 45 47 44 42 41 35 38 35 32 33 35 34 39 43 43 42 39 37 38 39 39 39 41 41 41 40 40 39 38 38 36
64 62 59 57 53 46 49 42 41 47 45 38 43 45 44 44 45 43 38 39 35 33 34 37 37 42 44 44 44 42 41 40 39 40 41 43 43 42 42 41 41 40 39
65 60 55 56 55 55 51 47 44 41 48 47 46 47 49 51 50 49 47 46 45 44 43 46 46 43 46 47 46 44 43 44 42 43 45 47 47 46 44 43 44 42 42
66 66 64 61 55 57 54 61 56 51 48 48 47 49 48 49 51 53 52 50 48 48 46 44 43 44 46 48 44 49 44 42 44 48 50 52 48 49 45 46 46 43 46
70 71 71 69 66 61 62 58 66 46 40 51 51 51 50 53 54 52 51 46 48 47 46 46 43 44 45 48 54 52 49 47 47 44 43 46 45 49 47 45 46 44 43
69 64 68 71 69 65 64 63 61 64 66 55 63 58 52 56 55 51 50 47 45 46 45 45 47 47 46 42 45 50 48 51 48 47 46 48 44 50 51 54 48 46 47
61 56 40 54 68 66 63 64 66 57 59 52 56 50 51 53 55 49 45 43 43 42 45 46 50 49 51 48 48 50 50 54 52 49 48 47 44 47 40 42 37 37 34
42 58 72 54 61 64 64 61 57 58 59 62 45 51 40 41 40 43 43 39 42 41 44 46 50 51 51 52 46 49 49 52 53 52 51 46 43 47 49 41 39 31 26
43 52 47 45 51 56 60 64 64 62 61 62 57 60 56 65 57 46 45 44 43 45 48 50 53 57 52 52 47 46 44 47 50 53 47 42 43 42 47 39 39 32 29
30 32 40 44 45 48 57 58 61 64 64 66 65 65 64 67 63 51 51 47 51 49 51 55 50 51 50 48 45 44 45 44 46 46 45 40 41 42 44 41 39 34 34
39 46 36 38 46 50 51 54 60 63 64 63 63 57 59 60 55 49 50 49 53 55 53 50 47 50 50 48 47 48 46 47 49 46 45 43 42 46 49 43 41 39 38
28 23 26 29 35 39 44 48 49 48 49 52 51 50 52 50 51 51 49 51 47 51 58 53 47 47 49 52 47 48 50 45 47 47 47 46 44 43 45 47 45 44 40
19 25 29 36 37 38 43 47 50 49 49 49 49 49 50 54 53 52 49 47 53 56 61 61 53 48 47 49 48 51 55 53 50 52 51 48 44 40 44 46 46 45 43
24 28 33 36 38 41 42 43 45 46 42 43 42 41 41 42 43 46 50 53 58 59 58 56 53 48 46 44 46 48 49 50 53 53 51 47 41 38 40 44 45 43 44
21 26 28 32 30 34 38 42 42 42 41 41 46 47 50 52 51 54 53 49 53 55 54 54 49 49 46 48 46 53 49 48 46 49 50 49 46 43 46 48 43 46 45
22 22 22 24 27 29 31 32 33 36 40 43 42 44 46 43 47 52 49 48 52 46 47 47 44 48 47 47 46 44 39 42 43 47 50 54 52 48 49 54 56 53 51
26 28 31 36 37 38 37 38 41 39 34 41 41 43 42 41 42 45 46 47 50 49 49 52 49 52 49 46 42 45 44 48 47 44 41 44 47 45 45 46 48 51 51
20 24 25 23 24 27 27 34 43 43 38 39 39 38 40 47 46 42 42 42 52 50 48 52 51 49 46 49 46 43 42 38 36 39 32 30 36 43 40 38 42 45 48
29 29 30 31 33 33 33 34 35 36 37 38 40 38 43 45 44 45 46 46 44 46 47 42 40 40 42 39 36 41 36 30 37 32 35 35 30 26 27 27 24 31 37
34 36 37 38 39 40 40 41 41 42 43 45 47 48 49 50 50 49 51 51 51 51 51 51 51 51 51 52 50 48 50 48 46 43 41 40 37 35 32 29 27 24 24
42 43 44 45 46 48 48 49 49 49 51 52 54 55 56 57 58 59 59 59 60 60 60 60 59 59 59 59 58 57 55 54 53 52 51 46 46 43 41 39 36 32 29
45 47 48 49 50 52 52 53 55 56 56 56 56 57 58 59 60 63 64 64 66 68 69 69 69 69 68 67 67 67 66 64 60 59 59 57 53 52 49 46 43 41 38
55 55 55 56 55 55 55 57 58 59 60 62 63 65 67 68 69 68 68 70 70 70 70 74 77 78 77 77 76 74 73 73 71 68 65 65 62 60 58 54 51 49 47

GFSMA_500_spd_117.txt.gz
Wind_Speed
43 43 42 43 45 49 52 52 51 49 46 46 42 41 40 41 41 39 38 39 41 40 41 39 38 36 35 33 31 31 32 32 32 31 31 32 32 33 32 31 31 31 30
50 49 47 47 45 43 46 50 50 49 48 47 45 42 41 41 42 41 39 39 40 36 38 41 41 40 37 35 34 34 33 33 34 34 33 34 34 35 34 34 33 33 33
59 55 51 49 49 48 45 44 48 49 47 47 43 43 44 44 46 46 43 44 41 37 38 38 39 39 39 38 38 37 37 37 36 36 36 36 35 35 36 36 35 35 34
65 62 58 55 52 52 50 50 48 47 51 48 40 39 42 46 47 48 46 44 44 42 37 34 33 32 33 32 34 36 39 40 40 38 37 37 35 36 36 37 36 35 35
70 64 64 63 61 59 54 53 54 52 48 51 41 43 41 47 44 44 48 46 43 36 36 37 34 33 32 34 35 34 38 41 42 42 41 40 40 37 38 39 39 39 37
72 71 65 66 64 62 60 59 56 60 53 46 48 43 41 49 47 48 48 47 47 45 43 42 41 38 40 41 41 39 39 42 45 44 43 43 42 43 42 43 42 42 40
75 72 73 69 65 63 59 57 52 61 55 49 47 53 50 51 51 53 52 52 55 52 51 45 48 49 46 45 42 39 39 42 44 43 44 44 43 41 41 39 44 44 41
75 77 76 68 71 66 61 60 58 57 59 57 55 57 50 57 55 54 54 55 51 51 52 53 51 47 44 43 43 41 41 40 45 50 50 47 46 42 40 41 38 40 41
67 68 69 75 67 70 67 67 63 59 58 61 60 58 60 51 50 47 57 50 46 50 56 56 55 50 45 43 42 41 40 42 41 43 47 46 47 46 41 42 38 41 39
64 60 60 61 65 63 63 69 71 68 66 59 63 59 59 67 65 53 54 61 55 55 57 58 54 50 45 42 39 40 40 40 43 44 47 49 48 49 43 42 41 40 38
58 59 52 53 51 56 59 46 53 67 76 70 60 55 52 44 44 49 55 56 49 51 51 52 48 45 44 42 41 40 40 42 44 46 49 50 49 49 46 44 41 38 37
37 45 45 51 32 55 51 48 40 47 48 59 64 64 60 54 48 52 45 49 43 40 47 46 43 42 43 44 45 43 43 42 43 47 48 50 47 46 44 45 41 40 40
32 36 42 45 27 52 66 56 54 50 50 53 63 65 65 62 60 62 59 57 59 42 47 44 43 46 46 47 45 45 46 45 43 44 45 46 44 44 44 42 41 42 41
9 24 31 37 30 32 42 44 43 47 48 52 53 60 63 66 67 66 67 71 69 68 47 49 50 50 51 52 47 44 44 44 45 43 45 46 44 44 43 43 43 42 39
15 15 14 24 32 45 34 37 41 43 46 47 50 53 58 64 66 66 64 63 60 62 57 56 55 50 53 51 45 47 47 46 48 48 46 47 46 48 49 45 41 44 41
8 13 17 13 12 22 33 35 35 37 41 47 49 51 51 53 59 61 60 58 57 55 56 53 52 54 55 50 51 54 54 51 52 49 49 51 49 47 47 45 43 45 48
17 19 18 22 26 30 34 37 40 43 45 45 48 48 52 51 54 53 52 54 56 57 55 53 54 57 55 57 55 55 52 51 49 50 52 51 59 57 50 46 45 46 49
17 18 19 23 28 32 36 38 41 42 44 43 46 49 50 47 51 49 47 48 49 48 51 49 53 57 57 56 56 54 51 49 41 50 52 52 54 54 56 54 48 45 41
23 23 26 28 29 29 31 32 38 41 40 39 40 38 46 47 48 50 50 53 56 55 56 55 52 53 52 54 52 52 49 51 48 50 52 54 51 51 51 49 50 47 46
24 23 22 24 26 27 27 33 38 42 43 42 43 44 43 44 45 51 52 50 51 50 52 55 51 50 48 47 49 46 46 48 53 49 45 46 49 46 41 43 46 52 51
29 29 29 31 32 33 32 32 34 35 35 35 40 44 48 52 46 48 52 58 55 53 52 51 50 54 49 50 54 52 54 52 49 48 51 47 45 45 44 43 42 44 47
35 36 37 38 39 39 39 39 39 40 41 41 42 42 43 43 42 42 46 40 44 44 45 44 43 42 43 43 42 54 56 53 55 50 44 44 46 45 43 38 41 41 46
43 44 45 45 45 45 46 46 46 46 47 47 48 48 49 49 49 50 50 51 51 51 51 50 50 51 51 49 47 47 43 43 47 48 48 42 35 33 31 34 32 30 31
46 48 49 50 50 50 50 51 52 52 52 53 54 54 54 55 56 56 56 57 58 59 58 57 56 56 56 57 56 54 53 51 48 46 45 38 47 44 41 36 39 39 33
50 51 51 52 53 54 54 54 54 58 61 60 59 59 60 59 60 62 63 63 63 64 64 64 64 64 64 64 63 63 62 60 59 58 58 57 56 54 52 50 46 44 42
53 53 54 54 54 55 57 57 56 56 57 58 61 63 65 65 67 67 66 67 68 69 69 70 71 70 69 68 68 69 69 70 68 66 66 64 63 61 58 56 55 53 52

GFSMA_500_spd_120.txt.gz
Wind_Speed
51 50 48 46 44 44 43 44 44 46 51 52 51 48 46 45 44 42 38 39 40 38 38 40 41 41 41 41 40 37 34 32 31 31 31 31 32 32 31 30 30 29 29
59 58 56 54 52 50 47 46 46 46 45 48 49 50 47 45 46 47 44 43 42 41 40 39 39 38 39 39 40 39 38 37 35 34 33 33 33 34 34 33 32 31 29
63 63 62 61 57 56 54 52 51 50 48 45 46 47 48 47 47 47 46 44 44 44 45 44 40 38 36 39 40 40 38 38 37 36 35 35 36 36 36 34 33 32 31
69 69 67 65 62 60 60 57 53 53 53 50 48 44 46 47 48 51 50 48 47 47 48 48 43 42 40 38 37 37 36 34 34 36 37 37 37 37 37 36 33 32 33
76 76 74 72 69 65 63 63 60 56 57 53 52 48 47 46 44 52 52 48 48 48 45 48 43 43 40 38 36 35 33 31 33 35 36 38 38 38 40 40 38 36 37
76 75 74 74 74 70 68 66 65 64 60 60 58 53 50 47 47 49 40 49 43 43 47 45 45 42 38 40 39 36 38 39 37 39 39 40 41 40 40 40 41 41 39
76 75 74 71 70 68 70 67 66 67 66 66 63 60 57 51 49 55 51 51 43 51 47 44 45 49 46 45 45 44 46 45 43 39 38 38 41 42 42 41 41 39 37
72 71 71 71 71 69 67 67 70 68 66 64 63 61 62 62 54 56 60 56 53 51 47 46 48 51 53 52 51 48 48 49 45 43 38 38 39 41 43 46 44 43 40
65 68 70 70 68 68 67 65 68 68 68 66 66 65 60 57 55 58 53 57 54 60 61 55 57 55 52 51 53 49 49 48 46 43 40 38 39 38 40 44 44 44 42
49 62 62 65 67 67 67 65 66 67 67 69 66 64 61 61 63 65 65 71 62 57 51 52 58 55 48 51 53 52 54 52 49 44 40 40 38 37 38 40 44 45 45
34 40 52 57 56 58 59 60 56 55 71 67 71 68 66 66 54 55 64 63 64 67 67 60 54 56 57 57 56 54 50 48 46 44 43 42 40 38 41 41 43 45 46
20 21 28 44 52 53 46 46 52 45 58 65 63 69 74 77 74 65 65 58 55 47 43 51 37 48 51 53 57 58 51 47 46 46 44 42 42 39 41 44 44 44 45
12 9 12 22 41 52 51 56 34 48 51 52 53 59 55 48 63 76 73 71 60 54 44 48 44 46 46 50 54 54 51 48 45 46 46 46 47 44 40 42 43 44 42
13 19 15 16 21 34 42 40 21 27 62 45 48 47 47 48 51 60 69 69 70 63 66 63 57 58 58 56 50 48 52 53 51 48 46 47 44 43 41 41 41 39 37
15 11 9 11 19 20 40 24 31 29 42 54 47 48 50 54 54 57 61 69 74 71 69 70 67 64 65 66 64 54 47 48 49 48 46 47 44 44 43 42 44 41 43
15 11 9 9 8 16 34 31 29 32 33 31 36 40 46 52 55 55 53 58 64 68 72 70 69 64 61 59 59 54 57 54 52 52 50 51 50 49 49 47 46 48 46
20 18 15 16 17 21 19 19 27 32 37 39 42 43 47 47 50 49 53 55 57 61 63 66 66 67 65 61 62 61 56 57 55 56 58 58 57 55 53 52 51 51 47
23 26 26 23 22 22 23 25 29 36 42 45 47 49 51 52 52 51 53 54 55 57 59 59 59 62 63 63 61 62 62 62 60 59 61 63 60 57 57 54 52 56 52
28 27 27 28 28 30 31 30 32 35 38 39 40 42 45 45 48 50 51 55 57 55 57 56 54 54 55 58 60 60 60 62 60 62 66 61 58 51 45 48 52 57 61
32 32 32 33 34 32 33 34 36 36 35 35 36 39 44 47 50 48 48 50 52 56 56 57 59 59 58 58 60 60 63 62 59 58 56 56 58 63 59 51 54 55 55
34 37 39 40 40 39 39 40 42 42 42 42 42 42 40 41 40 42 42 52 56 55 60 63 55 55 60 57 56 63 60 62 56 49 50 53 58 59 60 56 55 53 49
37 38 39 42 45 47 47 46 46 47 48 48 47 48 48 48 47 47 46 47 45 45 48 50 55 57 52 53 58 55 55 60 54 51 52 52 52 49 54 54 51 53 47
43 44 47 49 49 50 51 52 52 51 51 51 52 53 54 54 54 54 53 53 53 53 52 50 51 51 50 46 46 51 46 44 45 44 49 54 55 54 58 54 53 54 48
48 52 56 60 59 56 54 54 53 53 54 55 54 54 55 57 59 59 59 59 59 59 59 58 57 55 56 55 52 52 51 50 49 47 47 45 50 57 54 54 55 54 53
51 50 45 49 52 53 52 52 52 52 55 56 57 58 58 59 59 63 63 62 63 65 67 65 64 63 61 61 60 61 61 58 57 56 57 51 52 45 40 50 49 50 45
46 44 45 39 36 38 41 45 49 52 54 53 55 58 61 62 63 63 65 66 66 66 68 70 72 72 71 69 69 67 66 64 63 61 62 60 58 58 50 47 48 47 47

GFSMA_500_spd_123.txt.gz
Wind_Speed
57 57 56 55 53 53 51 49 46 44 44 44 46 47 48 48 48 46 44 42 44 43 41 39 39 39 39 39 39 39 39 39 39 37 35 33 32 32 32 31 32 31 31
61 61 60 60 59 58 57 56 54 51 49 48 45 45 45 46 46 47 45 44 45 47 46 43 43 42 40 38 37 40 40 39 39 40 39 37 36 35 34 34 34 33 33
67 67 66 65 64 63 63 61 59 58 56 53 50 50 48 46 47 45 47 46 47 46 47 48 47 44 41 41 40 38 38 39 39 40 40 39 38 38 37 37 35 35 34
72 74 75 72 71 70 68 67 61 64 61 60 58 56 54 49 46 45 48 49 49 49 49 49 48 45 43 44 44 43 41 39 41 41 39 38 36 35 36 36 36 35 35
73 76 78 77 76 75 75 71 69 67 65 62 63 60 59 54 52 50 47 49 49 47 50 49 51 49 48 49 48 42 42 40 38 35 35 34 33 33 35 37 37 36 38
66 69 74 79 78 75 72 73 73 72 69 66 66 66 61 59 56 54 51 51 51 51 53 56 48 52 49 51 48 43 42 40 39 37 36 34 35 36 37 37 38 40 38
54 55 58 67 74 79 77 73 71 71 72 71 68 68 66 61 61 59 53 53 51 50 53 47 52 60 59 46 50 46 42 41 41 39 40 38 40 40 40 39 38 39 38
55 64 60 59 68 72 72 75 73 70 69 69 72 69 67 67 66 61 59 58 58 54 54 41 44 42 49 57 53 51 48 45 45 48 45 45 46 44 43 42 38 38 38
46 49 51 51 57 66 66 67 69 70 68 65 66 69 69 64 63 64 64 62 62 60 59 58 58 58 47 47 48 52 51 52 53 53 50 47 46 45 44 42 40 38 38
43 38 45 42 41 56 63 64 65 65 67 65 64 64 65 68 65 64 62 63 62 64 61 59 52 41 51 58 52 53 53 56 56 55 54 51 47 47 45 42 39 37 38
38 37 31 25 25 38 54 59 61 60 61 63 63 62 61 59 61 64 65 61 65 62 63 64 62 60 61 61 59 44 54 62 67 55 54 53 51 49 47 43 40 38 39
35 32 29 22 21 20 35 49 56 59 60 60 59 60 59 60 60 60 61 63 61 61 62 63 57 61 64 63 56 61 60 61 56 57 52 53 51 47 45 44 43 41 41
37 34 29 23 19 20 21 35 47 52 56 57 56 53 54 61 62 68 63 60 62 63 61 62 59 61 52 50 49 45 48 51 53 57 56 57 51 47 45 44 43 44 44
33 31 27 25 22 25 22 22 39 45 49 54 50 42 42 61 63 59 58 67 60 65 67 76 75 66 57 54 55 49 51 51 49 53 53 56 55 52 49 46 47 47 45
29 28 26 27 27 21 18 20 18 40 47 45 44 38 39 43 42 52 67 60 52 54 53 58 69 78 78 71 69 66 62 53 48 46 48 54 55 53 56 50 49 46 44
30 28 28 26 24 24 22 11 13 18 37 29 41 35 32 36 39 41 44 49 52 55 57 56 59 63 70 73 73 75 78 80 68 56 59 53 51 52 52 51 49 48 44
33 32 30 25 28 26 24 21 17 24 28 35 31 37 34 32 32 35 42 46 51 53 55 57 60 61 62 65 69 71 75 79 75 75 71 66 58 59 58 53 52 52 49
33 33 32 31 27 26 26 23 25 27 28 32 41 45 48 49 49 47 50 52 54 53 56 55 57 58 60 62 64 67 70 72 73 71 70 69 60 59 59 56 58 59 58
31 32 33 35 36 34 32 31 30 31 32 34 37 40 43 44 44 44 46 48 50 54 56 57 58 57 59 61 61 61 61 64 69 71 71 71 69 66 66 63 63 63 62
33 34 35 36 37 39 41 43 42 39 39 41 43 43 42 43 43 43 45 48 50 53 53 53 55 58 58 60 60 62 60 57 59 65 68 69 70 68 69 65 63 63 63
37 38 39 40 41 43 45 47 49 51 50 47 46 48 48 48 48 48 48 47 48 48 49 55 60 59 59 57 56 60 60 60 62 60 58 59 67 67 67 66 66 66 61
39 40 43 44 45 48 50 50 50 55 57 56 54 52 51 51 53 54 53 53 52 53 53 50 49 49 53 60 58 61 65 61 56 62 59 63 65 65 63 68 68 62 62
40 41 43 48 45 45 45 46 45 43 46 51 53 54 53 54 54 54 55 56 55 56 57 55 54 55 53 53 50 50 50 50 52 49 56 52 54 63 64 61 59 54 58
42 43 44 47 45 45 48 46 43 41 40 41 45 48 52 54 56 56 56 57 58 58 60 61 59 58 59 58 57 56 55 52 52 51 50 53 52 50 64 57 54 58 57
43 43 45 47 47 47 49 47 44 43 44 43 43 45 46 49 53 57 56 57 58 59 62 63 63 62 64 65 65 64 62 61 60 57 57 52 51 48 50 46 51 57 62
44 45 45 47 47 48 48 48 44 45 46 47 47 47 46 46 46 46 48 53 56 58 61 65 67 68 68 69 69 69 68 68 66 63 63 60 56 55 55 53 51 50 49